Time,TemperatureF,DewpointF,PressureIn,WindDirection,WindDirectionDegrees,WindSpeedMPH,WindSpeedGustMPH,Humidity,HourlyPrecipIn,Conditions,Clouds,dailyrainin,SoftwareType,DateUTC
2013-06-13 00:00:00,67.0,44.4,29.94,North,355,8.0,12.0,44,0.00,,---,0.00,VWS V14.01,2013-06-13 08:00:00,
2013-06-13 00:01:00,66.9,44.3,29.94,North,355,7.0,14.0,44,0.00,,---,0.00,VWS V14.01,2013-06-13 08:01:00,
2013-06-13 00:02:00,66.9,43.7,29.94,NNW,342,10.0,13.0,43,0.00,,---,0.00,VWS V14.01,2013-06-13 08:02:00,
2013-06-13 00:03:00,66.9,43.7,29.94,North,350,12.0,14.0,43,0.00,,---,0.00,VWS V14.01,2013-06-13 08:03:00,
2013-06-13 00:05:00,66.9,44.3,29.94,North,9,12.0,16.0,44,0.00,,---,0.00,VWS V14.01,2013-06-13 08:05:00,
2013-06-13 00:06:00,67.0,43.8,29.94,North,5,7.0,16.0,43,0.00,,---,0.00,VWS V14.01,2013-06-13 08:06:00,
2013-06-13 00:07:00,66.9,44.3,29.94,NNW,342,8.0,14.0,44,0.00,,---,0.00,VWS V14.01,2013-06-13 08:07:00,
2013-06-13 00:09:00,66.9,43.7,29.94,North,355,9.0,14.0,43,0.00,,---,0.00,VWS V14.01,2013-06-13 08:09:00,
2013-06-13 00:10:00,66.9,43.7,29.94,NNW,337,8.0,14.0,43,0.00,,---,0.00,VWS V14.01,2013-06-13 08:10:00,
2013-06-13 00:11:00,66.9,43.7,29.94,NNW,340,10.0,14.0,43,0.00,,---,0.00,VWS V14.01,2013-06-13 08:11:00,
2013-06-13 00:12:00,66.9,43.7,29.94,NNW,342,7.0,12.0,43,0.00,,---,0.00,VWS V14.01,2013-06-13 08:12:00,
2013-06-13 00:14:00,66.9,43.7,29.94,North,350,8.0,12.0,43,0.00,,---,0.00,VWS V14.01,2013-06-13 08:14:00,
2013-06-13 00:15:00,66.8,44.2,29.94,NNW,330,9.0,12.0,44,0.00,,---,0.00,VWS V14.01,2013-06-13 08:15:00,
2013-06-13 00:16:00,66.8,44.2,29.94,NNW,342,8.0,12.0,44,0.00,,---,0.00,VWS V14.01,2013-06-13 08:16:00,
2013-06-13 00:18:00,66.8,43.6,29.94,NNW,345,7.0,13.0,43,0.00,,---,0.00,VWS V14.01,2013-06-13 08:18:00,
2013-06-13 00:19:00,66.8,44.2,29.94,North,9,10.0,13.0,44,0.00,,---,0.00,VWS V14.01,2013-06-13 08:19:00,
2013-06-13 00:20:00,66.8,44.2,29.94,NNW,327,9.0,13.0,44,0.00,,---,0.00,VWS V14.01,2013-06-13 08:20:00,
2013-06-13 00:21:00,66.8,44.2,29.94,NNW,347,7.0,13.0,44,0.00,,---,0.00,VWS V14.01,2013-06-13 08:21:00,
2013-06-13 00:23:00,66.7,44.1,29.94,NNW,336,9.0,15.0,44,0.00,,---,0.00,VWS V14.01,2013-06-13 08:23:00,
2013-06-13 00:24:00,66.7,44.1,29.94,North,355,5.0,15.0,44,0.00,,---,0.00,VWS V14.01,2013-06-13 08:24:00,
2013-06-13 00:25:00,66.7,44.7,29.94,NNE,25,6.0,15.0,45,0.00,,---,0.00,VWS V14.01,2013-06-13 08:25:00,
2013-06-13 00:26:00,66.6,44.6,29.94,North,360,6.0,15.0,45,0.00,,---,0.00,VWS V14.01,2013-06-13 08:26:00,
2013-06-13 00:28:00,66.5,43.9,29.94,North,355,1.0,8.0,44,0.00,,---,0.00,VWS V14.01,2013-06-13 08:28:00,
2013-06-13 00:29:00,66.5,44.5,29.94,NNW,329,0.0,8.0,45,0.00,,---,0.00,VWS V14.01,2013-06-13 08:29:00,
2013-06-13 00:30:00,66.4,43.8,29.94,WNW,303,0.0,8.0,44,0.00,,---,0.00,VWS V14.01,2013-06-13 08:30:00,
2013-06-13 00:31:00,66.3,43.8,29.94,North,5,0.0,8.0,44,0.00,,---,0.00,VWS V14.01,2013-06-13 08:31:00,
2013-06-13 00:33:00,66.2,44.2,29.95,SW,223,0.0,3.0,45,0.00,,---,0.00,VWS V14.01,2013-06-13 08:33:00,
2013-06-13 00:34:00,66.1,44.2,29.95,SW,223,0.0,3.0,45,0.00,,---,0.00,VWS V14.01,2013-06-13 08:34:00,
2013-06-13 00:35:00,66.1,44.2,29.95,SW,223,0.0,3.0,45,0.00,,---,0.00,VWS V14.01,2013-06-13 08:35:00,
2013-06-13 00:36:00,66.0,44.1,29.95,SW,223,0.0,3.0,45,0.00,,---,0.00,VWS V14.01,2013-06-13 08:36:00,
2013-06-13 00:38:00,65.8,43.9,29.95,SW,223,0.0,0.0,45,0.00,,---,0.00,VWS V14.01,2013-06-13 08:38:00,
2013-06-13 00:40:00,65.7,43.8,29.95,SW,223,0.0,0.0,45,0.00,,---,0.00,VWS V14.01,2013-06-13 08:40:00,
2013-06-13 00:41:00,65.7,44.4,29.95,SW,223,0.0,0.0,46,0.00,,---,0.00,VWS V14.01,2013-06-13 08:41:00,
2013-06-13 00:43:00,65.4,44.7,29.95,SW,223,0.0,0.0,47,0.00,,---,0.00,VWS V14.01,2013-06-13 08:43:00,
2013-06-13 00:45:00,65.3,44.6,29.95,SW,223,0.0,0.0,47,0.00,,---,0.00,VWS V14.01,2013-06-13 08:45:00,
2013-06-13 00:46:00,65.2,44.5,29.95,SW,223,0.0,0.0,47,0.00,,---,0.00,VWS V14.01,2013-06-13 08:46:00,
2013-06-13 00:47:00,65.1,44.4,29.95,SW,223,0.0,0.0,47,0.00,,---,0.00,VWS V14.01,2013-06-13 08:47:00,
2013-06-13 00:49:00,64.9,44.2,29.95,SW,223,0.0,0.0,47,0.00,,---,0.00,VWS V14.01,2013-06-13 08:49:00,
2013-06-13 00:50:00,64.8,44.1,29.95,SW,223,0.0,0.0,47,0.00,,---,0.00,VWS V14.01,2013-06-13 08:50:00,
2013-06-13 00:51:00,64.7,44.0,29.95,SW,223,0.0,0.0,47,0.00,,---,0.00,VWS V14.01,2013-06-13 08:51:00,
2013-06-13 00:52:00,64.6,43.9,29.95,SW,223,0.0,0.0,47,0.00,,---,0.00,VWS V14.01,2013-06-13 08:52:00,
2013-06-13 00:54:00,64.5,44.4,29.95,SW,223,0.0,0.0,48,0.00,,---,0.00,VWS V14.01,2013-06-13 08:54:00,
2013-06-13 00:55:00,64.4,44.3,29.95,SW,223,0.0,0.0,48,0.00,,---,0.00,VWS V14.01,2013-06-13 08:55:00,
2013-06-13 00:57:00,64.3,45.8,29.95,SW,223,0.0,0.0,51,0.00,,---,0.00,VWS V14.01,2013-06-13 08:57:00,
2013-06-13 00:59:00,64.0,45.5,29.95,SW,223,0.0,0.0,51,0.00,,---,0.00,VWS V14.01,2013-06-13 08:59:00,
2013-06-13 01:00:00,64.4,45.9,29.95,SW,223,0.0,0.0,51,0.00,,---,0.00,VWS V14.01,2013-06-13 09:00:00,
2013-06-13 01:01:00,63.8,45.3,29.95,SW,223,0.0,0.0,51,0.00,,---,0.00,VWS V14.01,2013-06-13 09:01:00,
2013-06-13 01:02:00,63.6,44.6,29.95,SW,223,0.0,0.0,50,0.00,,---,0.00,VWS V14.01,2013-06-13 09:02:00,
2013-06-13 01:03:00,63.6,45.2,29.95,SW,223,0.0,0.0,51,0.00,,---,0.00,VWS V14.01,2013-06-13 09:03:00,
2013-06-13 01:04:00,63.3,45.4,29.95,SW,223,0.0,1.0,52,0.00,,---,0.00,VWS V14.01,2013-06-13 09:04:00,
2013-06-13 01:05:00,63.7,45.2,29.95,SW,223,0.0,0.0,51,0.00,,---,0.00,VWS V14.01,2013-06-13 09:05:00,
2013-06-13 01:06:00,63.1,45.2,29.95,SW,223,0.0,1.0,52,0.00,,---,0.00,VWS V14.01,2013-06-13 09:06:00,
2013-06-13 01:07:00,62.9,45.0,29.95,SW,223,0.0,0.0,52,0.00,,---,0.00,VWS V14.01,2013-06-13 09:07:00,
2013-06-13 01:08:00,62.7,45.3,29.95,SW,223,0.0,1.0,53,0.00,,---,0.00,VWS V14.01,2013-06-13 09:08:00,
2013-06-13 01:09:00,62.6,43.7,29.95,SW,223,0.0,1.0,50,0.00,,---,0.00,VWS V14.01,2013-06-13 09:09:00,
2013-06-13 01:10:00,63.0,45.1,29.95,SW,223,0.0,1.0,52,0.00,,---,0.00,VWS V14.01,2013-06-13 09:10:00,
2013-06-13 01:11:00,62.5,43.6,29.95,SW,223,0.0,0.0,50,0.00,,---,0.00,VWS V14.01,2013-06-13 09:11:00,
2013-06-13 01:12:00,62.5,44.7,29.95,SW,223,0.0,0.0,52,0.00,,---,0.00,VWS V14.01,2013-06-13 09:12:00,
2013-06-13 01:13:00,62.5,44.2,29.95,SW,223,0.0,0.0,51,0.00,,---,0.00,VWS V14.01,2013-06-13 09:13:00,
2013-06-13 01:15:00,62.5,44.2,29.95,SW,223,2.0,2.0,51,0.00,,---,0.00,VWS V14.01,2013-06-13 09:15:00,
2013-06-13 01:17:00,62.3,44.5,29.95,SW,223,0.0,0.0,52,0.00,,---,0.00,VWS V14.01,2013-06-13 09:17:00,
2013-06-13 01:18:00,62.3,44.0,29.95,SW,223,0.0,1.0,51,0.00,,---,0.00,VWS V14.01,2013-06-13 09:18:00,
2013-06-13 01:20:00,62.2,44.4,29.95,SW,223,0.0,1.0,52,0.00,,---,0.00,VWS V14.01,2013-06-13 09:20:00,
2013-06-13 01:22:00,62.0,44.2,29.95,SW,223,0.0,0.0,52,0.00,,---,0.00,VWS V14.01,2013-06-13 09:22:00,
2013-06-13 01:23:00,62.0,43.7,29.95,SW,223,0.0,0.0,51,0.00,,---,0.00,VWS V14.01,2013-06-13 09:23:00,
2013-06-13 01:25:00,61.9,45.1,29.95,SW,223,0.0,0.0,54,0.00,,---,0.00,VWS V14.01,2013-06-13 09:25:00,
2013-06-13 01:27:00,61.8,44.5,29.95,SW,223,0.0,1.0,53,0.00,,---,0.00,VWS V14.01,2013-06-13 09:27:00,
2013-06-13 01:28:00,61.7,44.9,29.95,SW,223,0.0,1.0,54,0.00,,---,0.00,VWS V14.01,2013-06-13 09:28:00,
2013-06-13 01:30:00,61.5,44.2,29.95,SW,223,0.0,1.0,53,0.00,,---,0.00,VWS V14.01,2013-06-13 09:30:00,
2013-06-13 01:32:00,61.2,44.9,29.95,SW,223,0.0,0.0,55,0.00,,---,0.00,VWS V14.01,2013-06-13 09:32:00,
2013-06-13 01:33:00,61.1,44.8,29.95,SW,229,2.0,4.0,55,0.00,,---,0.00,VWS V14.01,2013-06-13 09:33:00,
2013-06-13 01:35:00,60.8,44.1,29.95,SW,229,1.0,4.0,54,0.00,,---,0.00,VWS V14.01,2013-06-13 09:35:00,
2013-06-13 01:38:00,60.7,44.5,29.95,NNW,341,1.0,4.0,55,0.00,,---,0.00,VWS V14.01,2013-06-13 09:38:00,
2013-06-13 01:39:00,60.7,44.5,29.95,NNW,341,0.0,4.0,55,0.00,,---,0.00,VWS V14.01,2013-06-13 09:39:00,
2013-06-13 01:40:00,60.7,44.5,29.95,SW,230,1.0,4.0,55,0.00,,---,0.00,VWS V14.01,2013-06-13 09:40:00,
2013-06-13 01:41:00,60.7,44.5,29.95,NNW,344,2.0,4.0,55,0.00,,---,0.00,VWS V14.01,2013-06-13 09:41:00,
2013-06-13 01:43:00,60.6,44.4,29.95,NNW,344,3.0,3.0,55,0.00,,---,0.00,VWS V14.01,2013-06-13 09:43:00,
2013-06-13 01:44:00,60.6,44.4,29.95,NNW,344,3.0,4.0,55,0.00,,---,0.00,VWS V14.01,2013-06-13 09:44:00,
2013-06-13 01:45:00,60.7,44.5,29.95,NNW,344,3.0,4.0,55,0.00,,---,0.00,VWS V14.01,2013-06-13 09:45:00,
2013-06-13 01:46:00,60.6,44.4,29.95,NNW,344,0.0,0.0,55,0.00,,---,0.00,VWS V14.01,2013-06-13 09:46:00,
2013-06-13 01:48:00,60.6,44.4,29.95,NNW,344,3.0,4.0,55,0.00,,---,0.00,VWS V14.01,2013-06-13 09:48:00,
2013-06-13 01:49:00,60.5,44.3,29.95,NNW,344,3.0,4.0,55,0.00,,---,0.00,VWS V14.01,2013-06-13 09:49:00,
2013-06-13 01:50:00,60.6,44.4,29.95,NNW,344,0.0,4.0,55,0.00,,---,0.00,VWS V14.01,2013-06-13 09:50:00,
2013-06-13 01:51:00,60.5,43.8,29.95,NNW,344,0.0,0.0,54,0.00,,---,0.00,VWS V14.01,2013-06-13 09:51:00,
2013-06-13 01:54:00,60.6,43.9,29.95,NNW,344,0.0,0.0,54,0.00,,---,0.00,VWS V14.01,2013-06-13 09:54:00,
2013-06-13 01:55:00,60.5,44.3,29.95,NNW,344,3.0,3.0,55,0.00,,---,0.00,VWS V14.01,2013-06-13 09:55:00,
2013-06-13 01:56:00,60.6,43.9,29.95,NNW,336,3.0,4.0,54,0.00,,---,0.00,VWS V14.01,2013-06-13 09:56:00,
2013-06-13 01:59:00,60.8,44.5,29.95,NNW,336,0.0,4.0,55,0.00,,---,0.00,VWS V14.01,2013-06-13 09:59:00,
2013-06-13 02:00:00,60.8,44.1,29.95,NNW,336,0.0,4.0,54,0.00,,---,0.00,VWS V14.01,2013-06-13 10:00:00,
2013-06-13 02:01:00,60.9,44.2,29.95,NNW,336,0.0,0.0,54,0.00,,---,0.00,VWS V14.01,2013-06-13 10:01:00,
2013-06-13 02:04:00,60.9,44.2,29.95,NNW,336,1.0,3.0,54,0.00,,---,0.00,VWS V14.01,2013-06-13 10:04:00,
2013-06-13 02:05:00,60.9,44.2,29.95,NNW,336,0.0,3.0,54,0.00,,---,0.00,VWS V14.01,2013-06-13 10:05:00,
2013-06-13 02:06:00,60.9,44.2,29.96,NNW,336,0.0,0.0,54,0.00,,---,0.00,VWS V14.01,2013-06-13 10:06:00,
2013-06-13 02:09:00,60.9,44.2,29.95,NNW,336,0.0,2.0,54,0.00,,---,0.00,VWS V14.01,2013-06-13 10:09:00,
2013-06-13 02:10:00,60.8,44.1,29.95,WSW,257,0.0,3.0,54,0.00,,---,0.00,VWS V14.01,2013-06-13 10:10:00,
2013-06-13 02:12:00,60.8,44.1,29.95,NNW,344,2.0,2.0,54,0.00,,---,0.00,VWS V14.01,2013-06-13 10:12:00,
2013-06-13 02:14:00,60.7,44.0,29.95,NNW,328,2.0,4.0,54,0.00,,---,0.00,VWS V14.01,2013-06-13 10:14:00,
2013-06-13 02:15:00,60.7,44.5,29.95,NW,321,5.0,5.0,55,0.00,,---,0.00,VWS V14.01,2013-06-13 10:15:00,
2013-06-13 02:16:00,60.7,44.0,29.95,NW,319,4.0,7.0,54,0.00,,---,0.00,VWS V14.01,2013-06-13 10:16:00,
2013-06-13 02:17:00,60.7,44.0,29.95,WNW,302,3.0,5.0,54,0.00,,---,0.00,VWS V14.01,2013-06-13 10:17:00,
2013-06-13 02:20:00,60.9,43.7,29.95,NW,306,2.0,6.0,53,0.00,,---,0.00,VWS V14.01,2013-06-13 10:20:00,
2013-06-13 02:21:00,61.0,44.2,29.95,NW,317,3.0,6.0,54,0.00,,---,0.00,VWS V14.01,2013-06-13 10:21:00,
2013-06-13 02:22:00,61.1,44.3,29.96,NW,319,0.0,2.0,54,0.00,,---,0.00,VWS V14.01,2013-06-13 10:22:00,
2013-06-13 02:25:00,61.0,43.8,29.95,NW,319,0.0,2.0,53,0.00,,---,0.00,VWS V14.01,2013-06-13 10:25:00,
2013-06-13 02:26:00,61.0,44.2,29.95,NW,318,0.0,2.0,54,0.00,,---,0.00,VWS V14.01,2013-06-13 10:26:00,
2013-06-13 02:27:00,60.9,44.2,29.95,NW,318,0.0,2.0,54,0.00,,---,0.00,VWS V14.01,2013-06-13 10:27:00,
2013-06-13 02:30:00,60.7,43.5,29.96,NW,322,4.0,5.0,53,0.00,,---,0.00,VWS V14.01,2013-06-13 10:30:00,
2013-06-13 02:31:00,60.6,43.9,29.96,North,350,3.0,5.0,54,0.00,,---,0.00,VWS V14.01,2013-06-13 10:31:00,
2013-06-13 02:32:00,60.5,43.8,29.96,North,350,0.0,3.0,54,0.00,,---,0.00,VWS V14.01,2013-06-13 10:32:00,
2013-06-13 02:35:00,60.5,43.8,29.95,NNW,333,0.0,3.0,54,0.00,,---,0.00,VWS V14.01,2013-06-13 10:35:00,
2013-06-13 02:36:00,60.5,43.8,29.96,NNW,333,0.0,3.0,54,0.00,,---,0.00,VWS V14.01,2013-06-13 10:36:00,
2013-06-13 02:37:00,60.5,43.8,29.96,NNW,333,0.0,0.0,54,0.00,,---,0.00,VWS V14.01,2013-06-13 10:37:00,
2013-06-13 02:38:00,60.5,43.8,29.96,NNW,333,0.0,0.0,54,0.00,,---,0.00,VWS V14.01,2013-06-13 10:38:00,
2013-06-13 02:40:00,60.3,43.1,29.96,NNW,333,1.0,4.0,53,0.00,,---,0.00,VWS V14.01,2013-06-13 10:40:00,
2013-06-13 02:41:00,60.4,43.2,29.96,NNW,333,0.0,4.0,53,0.00,,---,0.00,VWS V14.01,2013-06-13 10:41:00,
2013-06-13 02:42:00,60.3,43.6,29.96,NNW,333,1.0,3.0,54,0.00,,---,0.00,VWS V14.01,2013-06-13 10:42:00,
2013-06-13 02:43:00,60.3,43.6,29.96,NNW,333,0.0,3.0,54,0.00,,---,0.00,VWS V14.01,2013-06-13 10:43:00,
2013-06-13 02:45:00,60.3,43.6,29.96,NNW,333,0.0,3.0,54,0.00,,---,0.00,VWS V14.01,2013-06-13 10:45:00,
2013-06-13 02:46:00,60.3,43.6,29.96,NNW,333,0.0,3.0,54,0.00,,---,0.00,VWS V14.01,2013-06-13 10:46:00,
2013-06-13 02:47:00,60.3,43.6,29.96,NNW,334,2.0,2.0,54,0.00,,---,0.00,VWS V14.01,2013-06-13 10:47:00,
2013-06-13 02:49:00,60.2,44.0,29.96,NNW,333,0.0,2.0,55,0.00,,---,0.00,VWS V14.01,2013-06-13 10:49:00,
2013-06-13 02:50:00,60.3,43.6,29.96,NNW,334,1.0,3.0,54,0.00,,---,0.00,VWS V14.01,2013-06-13 10:50:00,
2013-06-13 02:51:00,60.0,43.8,29.96,NNW,333,0.0,4.0,55,0.00,,---,0.00,VWS V14.01,2013-06-13 10:51:00,
2013-06-13 02:52:00,59.8,43.6,29.96,NNW,333,1.0,2.0,55,0.00,,---,0.00,VWS V14.01,2013-06-13 10:52:00,
2013-06-13 02:54:00,59.7,43.5,29.96,NNW,333,0.0,4.0,55,0.00,,---,0.00,VWS V14.01,2013-06-13 10:54:00,
2013-06-13 02:55:00,59.9,43.7,29.96,NNW,333,0.0,4.0,55,0.00,,---,0.00,VWS V14.01,2013-06-13 10:55:00,
2013-06-13 02:56:00,59.5,43.3,29.96,NNW,333,0.0,5.0,55,0.00,,---,0.00,VWS V14.01,2013-06-13 10:56:00,
2013-06-13 02:57:00,59.5,43.3,29.96,NNW,333,3.0,4.0,55,0.00,,---,0.00,VWS V14.01,2013-06-13 10:57:00,
2013-06-13 02:59:00,59.5,43.3,29.96,NNW,333,2.0,4.0,55,0.00,,---,0.00,VWS V14.01,2013-06-13 10:59:00,
2013-06-13 03:00:00,59.5,43.3,29.96,NNW,333,1.0,5.0,55,0.00,,---,0.00,VWS V14.01,2013-06-13 11:00:00,
2013-06-13 03:01:00,59.6,43.4,29.96,NNW,333,2.0,5.0,55,0.00,,---,0.00,VWS V14.01,2013-06-13 11:01:00,
2013-06-13 03:02:00,59.7,43.5,29.96,NNW,333,3.0,5.0,55,0.00,,---,0.00,VWS V14.01,2013-06-13 11:02:00,
2013-06-13 03:04:00,59.7,43.5,29.96,NNW,334,3.0,5.0,55,0.00,,---,0.00,VWS V14.01,2013-06-13 11:04:00,
2013-06-13 03:05:00,59.6,43.4,29.96,NNW,333,2.0,5.0,55,0.00,,---,0.00,VWS V14.01,2013-06-13 11:05:00,
2013-06-13 03:07:00,59.7,43.5,29.95,NNW,328,0.0,4.0,55,0.00,,---,0.00,VWS V14.01,2013-06-13 11:07:00,
2013-06-13 03:08:00,59.8,43.6,29.95,NNW,329,4.0,5.0,55,0.00,,---,0.00,VWS V14.01,2013-06-13 11:08:00,
2013-06-13 03:09:00,59.8,43.6,29.95,NNW,335,1.0,5.0,55,0.00,,---,0.00,VWS V14.01,2013-06-13 11:09:00,
2013-06-13 03:10:00,59.7,43.0,29.95,NNW,328,1.0,5.0,54,0.00,,---,0.00,VWS V14.01,2013-06-13 11:10:00,
2013-06-13 03:12:00,59.9,43.7,29.96,North,5,5.0,6.0,55,0.00,,---,0.00,VWS V14.01,2013-06-13 11:12:00,
2013-06-13 03:13:00,59.9,43.2,29.96,North,9,3.0,6.0,54,0.00,,---,0.00,VWS V14.01,2013-06-13 11:13:00,
2013-06-13 03:15:00,60.0,43.3,29.95,NW,311,5.0,7.0,54,0.00,,---,0.00,VWS V14.01,2013-06-13 11:15:00,
2013-06-13 03:17:00,60.2,43.5,29.96,NNW,338,2.0,5.0,54,0.00,,---,0.00,VWS V14.01,2013-06-13 11:17:00,
2013-06-13 03:18:00,60.2,43.0,29.95,WNW,295,0.0,5.0,53,0.00,,---,0.00,VWS V14.01,2013-06-13 11:18:00,
2013-06-13 03:20:00,60.2,43.5,29.95,WNW,295,0.0,5.0,54,0.00,,---,0.00,VWS V14.01,2013-06-13 11:20:00,
2013-06-13 03:29:00,60.2,43.5,29.95,NNW,338,1.0,5.0,54,0.00,,---,0.00,VWS V14.01,2013-06-13 11:29:00,
2013-06-13 03:34:00,53.5,42.4,29.95,SSW,196,1.0,2.0,66,0.00,,---,0.00,VWS V14.01,2013-06-13 11:34:00,
2013-06-13 03:39:00,53.6,42.1,29.95,ENE,62,0.0,2.0,65,0.00,,---,0.00,VWS V14.01,2013-06-13 11:39:00,
2013-06-13 03:40:00,53.5,42.4,29.95,East,80,2.0,2.0,66,0.00,,---,0.00,VWS V14.01,2013-06-13 11:40:00,
2013-06-13 03:44:00,52.9,42.3,29.95,WSW,238,2.0,3.0,67,0.00,,---,0.00,VWS V14.01,2013-06-13 11:44:00,
2013-06-13 03:45:00,52.8,42.2,29.95,WSW,240,2.0,3.0,67,0.00,,---,0.00,VWS V14.01,2013-06-13 11:45:00,
2013-06-13 03:49:00,52.6,42.0,29.95,SSE,154,0.0,2.0,67,0.00,,---,0.00,VWS V14.01,2013-06-13 11:49:00,
2013-06-13 03:50:00,52.5,41.9,29.95,SSE,154,0.0,2.0,67,0.00,,---,0.00,VWS V14.01,2013-06-13 11:50:00,
2013-06-13 03:54:00,51.9,41.7,29.95,SSE,147,0.0,2.0,68,0.00,,---,0.00,VWS V14.01,2013-06-13 11:54:00,
2013-06-13 03:55:00,51.9,41.7,29.95,SSE,147,0.0,2.0,68,0.00,,---,0.00,VWS V14.01,2013-06-13 11:55:00,
2013-06-13 04:00:00,50.9,41.1,29.95,East,98,1.0,2.0,69,0.00,,---,0.00,VWS V14.01,2013-06-13 12:00:00,
2013-06-13 04:05:00,49.8,41.2,29.95,ESE,107,1.0,2.0,72,0.00,,---,0.00,VWS V14.01,2013-06-13 12:05:00,
2013-06-13 04:06:00,49.7,41.4,29.95,ESE,107,1.0,2.0,73,0.00,,---,0.00,VWS V14.01,2013-06-13 12:06:00,
2013-06-13 04:10:00,49.7,41.4,29.96,ESE,107,0.0,2.0,73,0.00,,---,0.00,VWS V14.01,2013-06-13 12:10:00,
2013-06-13 04:11:00,49.7,41.4,29.95,ESE,107,0.0,2.0,73,0.00,,---,0.00,VWS V14.01,2013-06-13 12:11:00,
2013-06-13 04:15:00,49.5,40.9,29.95,East,89,2.0,4.0,72,0.00,,---,0.00,VWS V14.01,2013-06-13 12:15:00,
2013-06-13 04:16:00,49.3,40.7,29.95,East,89,1.0,4.0,72,0.00,,---,0.00,VWS V14.01,2013-06-13 12:16:00,
2013-06-13 04:20:00,49.0,41.1,29.96,East,84,1.0,2.0,74,0.00,,---,0.00,VWS V14.01,2013-06-13 12:20:00,
2013-06-13 04:21:00,49.0,41.1,29.96,East,84,2.0,2.0,74,0.00,,---,0.00,VWS V14.01,2013-06-13 12:21:00,
2013-06-13 04:25:00,49.0,40.7,29.96,East,85,3.0,5.0,73,0.00,,---,0.00,VWS V14.01,2013-06-13 12:25:00,
2013-06-13 04:26:00,48.9,40.6,29.96,East,85,2.0,5.0,73,0.00,,---,0.00,VWS V14.01,2013-06-13 12:26:00,
2013-06-13 04:30:00,49.4,41.5,29.96,WNW,302,1.0,3.0,74,0.00,,---,0.00,VWS V14.01,2013-06-13 12:30:00,
2013-06-13 04:31:00,49.5,41.6,29.96,WNW,302,0.0,3.0,74,0.00,,---,0.00,VWS V14.01,2013-06-13 12:31:00,
2013-06-13 04:36:00,50.2,41.5,29.96,East,94,2.0,4.0,72,0.00,,---,0.00,VWS V14.01,2013-06-13 12:36:00,
2013-06-13 04:41:00,51.0,41.9,29.96,South,190,2.0,3.0,71,0.00,,---,0.00,VWS V14.01,2013-06-13 12:41:00,
2013-06-13 04:42:00,51.2,42.1,29.96,South,190,2.0,2.0,71,0.00,,---,0.00,VWS V14.01,2013-06-13 12:42:00,
2013-06-13 04:46:00,51.3,41.9,29.96,ESE,104,1.0,4.0,70,0.00,,---,0.00,VWS V14.01,2013-06-13 12:46:00,
2013-06-13 04:47:00,51.2,41.8,29.96,ESE,104,0.0,1.0,70,0.00,,---,0.00,VWS V14.01,2013-06-13 12:47:00,
2013-06-13 04:51:00,51.5,42.0,29.96,ENE,77,1.0,4.0,70,0.00,,---,0.00,VWS V14.01,2013-06-13 12:51:00,
2013-06-13 04:52:00,51.4,42.0,29.96,ENE,77,0.0,1.0,70,0.00,,---,0.00,VWS V14.01,2013-06-13 12:52:00,
2013-06-13 04:53:00,51.4,42.0,29.96,North,9,1.0,2.0,70,0.00,,---,0.00,VWS V14.01,2013-06-13 12:53:00,
2013-06-13 04:56:00,51.0,41.9,29.96,NE,49,2.0,3.0,71,0.00,,---,0.00,VWS V14.01,2013-06-13 12:56:00,
2013-06-13 04:57:00,51.0,41.9,29.96,NE,49,1.0,2.0,71,0.00,,---,0.00,VWS V14.01,2013-06-13 12:57:00,
2013-06-13 04:59:00,51.2,42.1,29.96,NW,304,1.0,3.0,71,0.00,,---,0.00,VWS V14.01,2013-06-13 12:59:00,
2013-06-13 05:01:00,51.3,41.9,29.96,NNE,12,0.0,1.0,70,0.00,,---,0.00,VWS V14.01,2013-06-13 13:01:00,
2013-06-13 05:02:00,51.3,41.9,29.96,NNE,12,1.0,1.0,70,0.00,,---,0.00,VWS V14.01,2013-06-13 13:02:00,
2013-06-13 05:04:00,51.6,42.2,29.96,NNE,12,0.0,1.0,70,0.00,,---,0.00,VWS V14.01,2013-06-13 13:04:00,
2013-06-13 05:06:00,51.9,42.4,29.96,NNE,12,0.0,0.0,70,0.00,,---,0.00,VWS V14.01,2013-06-13 13:06:00,
2013-06-13 05:07:00,52.0,42.5,29.96,NNE,12,0.0,0.0,70,0.00,,---,0.00,VWS V14.01,2013-06-13 13:07:00,
2013-06-13 05:09:00,52.1,42.2,29.96,NNE,12,0.0,1.0,69,0.00,,---,0.00,VWS V14.01,2013-06-13 13:09:00,
2013-06-13 05:11:00,52.2,42.3,29.96,NNE,12,2.0,2.0,69,0.00,,---,0.00,VWS V14.01,2013-06-13 13:11:00,
2013-06-13 05:12:00,52.2,42.3,29.96,NNE,12,2.0,2.0,69,0.00,,---,0.00,VWS V14.01,2013-06-13 13:12:00,
2013-06-13 05:14:00,52.2,42.3,29.96,NE,47,0.0,2.0,69,0.00,,---,0.00,VWS V14.01,2013-06-13 13:14:00,
2013-06-13 05:16:00,52.2,42.3,29.95,NE,47,1.0,1.0,69,0.00,,---,0.00,VWS V14.01,2013-06-13 13:16:00,
2013-06-13 05:17:00,52.2,42.3,29.95,NE,40,1.0,2.0,69,0.00,,---,0.00,VWS V14.01,2013-06-13 13:17:00,
2013-06-13 05:19:00,52.4,42.2,29.96,NNW,338,3.0,3.0,68,0.00,,---,0.00,VWS V14.01,2013-06-13 13:19:00,
2013-06-13 05:21:00,52.8,42.5,29.95,NW,314,3.0,3.0,68,0.00,,---,0.00,VWS V14.01,2013-06-13 13:21:00,
2013-06-13 05:22:00,52.9,42.6,29.95,NW,304,3.0,3.0,68,0.00,,---,0.00,VWS V14.01,2013-06-13 13:22:00,
2013-06-13 05:23:00,53.1,42.8,29.95,WNW,294,2.0,3.0,68,0.00,,---,0.00,VWS V14.01,2013-06-13 13:23:00,
2013-06-13 05:25:00,53.5,43.2,29.96,ENE,58,3.0,4.0,68,0.00,,---,0.00,VWS V14.01,2013-06-13 13:25:00,
2013-06-13 05:27:00,53.9,43.2,29.96,North,355,5.0,5.0,67,0.00,,---,0.00,VWS V14.01,2013-06-13 13:27:00,
2013-06-13 05:28:00,54.3,42.8,29.96,NNW,330,3.0,5.0,65,0.00,,---,0.00,VWS V14.01,2013-06-13 13:28:00,
2013-06-13 05:30:00,54.9,43.0,29.96,NNW,348,1.0,5.0,64,0.00,,---,0.00,VWS V14.01,2013-06-13 13:30:00,
2013-06-13 05:32:00,55.3,43.3,29.96,NNW,348,1.0,2.0,64,0.00,,---,0.00,VWS V14.01,2013-06-13 13:32:00,
2013-06-13 05:33:00,55.4,43.4,29.96,NNW,348,0.0,2.0,64,0.00,,---,0.00,VWS V14.01,2013-06-13 13:33:00,
2013-06-13 05:35:00,55.6,43.2,29.95,NNW,346,2.0,2.0,63,0.00,,---,0.00,VWS V14.01,2013-06-13 13:35:00,
2013-06-13 05:37:00,55.7,43.3,29.95,NNW,332,1.0,2.0,63,0.00,,---,0.00,VWS V14.01,2013-06-13 13:37:00,
2013-06-13 05:38:00,55.7,43.3,29.96,NNE,19,1.0,2.0,63,0.00,,---,0.00,VWS V14.01,2013-06-13 13:38:00,
2013-06-13 05:41:00,55.6,43.2,29.95,NNE,24,3.0,4.0,63,0.00,,---,0.00,VWS V14.01,2013-06-13 13:41:00,
2013-06-13 05:42:00,55.7,43.3,29.95,NNE,32,2.0,4.0,63,0.00,,---,0.00,VWS V14.01,2013-06-13 13:42:00,
2013-06-13 05:43:00,55.8,43.4,29.95,North,5,4.0,4.0,63,0.00,,---,0.00,VWS V14.01,2013-06-13 13:43:00,
2013-06-13 05:46:00,55.9,43.5,29.95,North,5,4.0,4.0,63,0.00,,---,0.00,VWS V14.01,2013-06-13 13:46:00,
2013-06-13 05:47:00,55.9,43.5,29.95,North,360,2.0,3.0,63,0.00,,---,0.00,VWS V14.01,2013-06-13 13:47:00,
2013-06-13 05:48:00,55.8,43.4,29.95,North,360,3.0,3.0,63,0.00,,---,0.00,VWS V14.01,2013-06-13 13:48:00,
2013-06-13 05:51:00,55.7,43.7,29.95,NE,38,2.0,4.0,64,0.00,,---,0.00,VWS V14.01,2013-06-13 13:51:00,
2013-06-13 05:52:00,55.7,43.3,29.95,NE,41,2.0,3.0,63,0.00,,---,0.00,VWS V14.01,2013-06-13 13:52:00,
2013-06-13 05:53:00,55.6,43.2,29.95,NE,49,1.0,3.0,63,0.00,,---,0.00,VWS V14.01,2013-06-13 13:53:00,
2013-06-13 05:54:00,55.6,43.2,29.95,NE,49,1.0,3.0,63,0.00,,---,0.00,VWS V14.01,2013-06-13 13:54:00,
2013-06-13 05:56:00,55.5,43.1,29.95,NE,49,1.0,4.0,63,0.00,,---,0.00,VWS V14.01,2013-06-13 13:56:00,
2013-06-13 05:58:00,55.6,43.2,29.95,North,10,3.0,3.0,63,0.00,,---,0.00,VWS V14.01,2013-06-13 13:58:00,
2013-06-13 05:59:00,55.5,43.1,29.95,NNE,22,3.0,3.0,63,0.00,,---,0.00,VWS V14.01,2013-06-13 13:59:00,
2013-06-13 06:02:00,55.7,42.9,29.95,NE,40,2.0,3.0,62,0.00,,---,0.00,VWS V14.01,2013-06-13 14:02:00,
2013-06-13 06:03:00,55.7,42.9,29.95,NNE,29,2.0,3.0,62,0.00,,---,0.00,VWS V14.01,2013-06-13 14:03:00,
2013-06-13 06:04:00,55.6,42.8,29.95,NNE,26,3.0,3.0,62,0.00,,---,0.00,VWS V14.01,2013-06-13 14:04:00,
2013-06-13 06:07:00,55.7,42.9,29.95,NNW,346,5.0,5.0,62,0.00,,---,0.00,VWS V14.01,2013-06-13 14:07:00,
2013-06-13 06:08:00,55.7,42.9,29.95,North,5,5.0,5.0,62,0.00,,---,0.00,VWS V14.01,2013-06-13 14:08:00,
2013-06-13 06:09:00,55.7,42.9,29.95,NNE,18,3.0,5.0,62,0.00,,---,0.00,VWS V14.01,2013-06-13 14:09:00,
2013-06-13 06:12:00,55.6,42.8,29.95,NNE,20,3.0,5.0,62,0.00,,---,0.00,VWS V14.01,2013-06-13 14:12:00,
2013-06-13 06:13:00,55.7,42.9,29.95,North,350,2.0,5.0,62,0.00,,---,0.00,VWS V14.01,2013-06-13 14:13:00,
2013-06-13 06:14:00,55.7,42.9,29.95,NNE,28,2.0,5.0,62,0.00,,---,0.00,VWS V14.01,2013-06-13 14:14:00,
2013-06-13 06:17:00,55.9,43.1,29.95,NNE,28,3.0,4.0,62,0.00,,---,0.00,VWS V14.01,2013-06-13 14:17:00,
2013-06-13 06:18:00,55.9,42.7,29.95,NE,49,5.0,5.0,61,0.00,,---,0.00,VWS V14.01,2013-06-13 14:18:00,
2013-06-13 06:19:00,55.9,42.7,29.95,NNE,19,3.0,5.0,61,0.00,,---,0.00,VWS V14.01,2013-06-13 14:19:00,
2013-06-13 06:20:00,55.9,42.7,29.95,NNE,13,4.0,5.0,61,0.00,,---,0.00,VWS V14.01,2013-06-13 14:20:00,
2013-06-13 06:22:00,56.1,42.8,29.95,NNE,20,2.0,4.0,61,0.00,,---,0.00,VWS V14.01,2013-06-13 14:22:00,
2013-06-13 06:24:00,56.1,42.8,29.95,NE,35,1.0,4.0,61,0.00,,---,0.00,VWS V14.01,2013-06-13 14:24:00,
2013-06-13 06:25:00,56.1,42.8,29.95,NNE,30,2.0,4.0,61,0.00,,---,0.00,VWS V14.01,2013-06-13 14:25:00,
2013-06-13 06:27:00,55.9,42.7,29.95,NW,323,1.0,3.0,61,0.00,,---,0.00,VWS V14.01,2013-06-13 14:27:00,
2013-06-13 06:29:00,55.8,42.6,29.95,NE,51,2.0,3.0,61,0.00,,---,0.00,VWS V14.01,2013-06-13 14:29:00,
2013-06-13 06:31:00,55.7,42.5,29.95,North,350,2.0,3.0,61,0.00,,---,0.00,VWS V14.01,2013-06-13 14:31:00,
2013-06-13 06:33:00,55.7,42.5,29.95,NNE,22,1.0,4.0,61,0.00,,---,0.00,VWS V14.01,2013-06-13 14:33:00,
2013-06-13 06:34:00,55.6,42.8,29.95,NNE,22,1.0,4.0,62,0.00,,---,0.00,VWS V14.01,2013-06-13 14:34:00,
2013-06-13 06:36:00,55.6,42.8,29.95,NNE,22,1.0,4.0,62,0.00,,---,0.00,VWS V14.01,2013-06-13 14:36:00,
2013-06-13 06:38:00,55.5,42.7,29.95,NNE,26,3.0,3.0,62,0.00,,---,0.00,VWS V14.01,2013-06-13 14:38:00,
2013-06-13 06:39:00,55.5,42.7,29.95,NNE,26,3.0,3.0,62,0.00,,---,0.00,VWS V14.01,2013-06-13 14:39:00,
2013-06-13 06:40:00,55.3,42.5,29.95,NNE,32,2.0,3.0,62,0.00,,---,0.00,VWS V14.01,2013-06-13 14:40:00,
2013-06-13 06:42:00,55.3,42.5,29.96,NNE,15,1.0,2.0,62,0.00,,---,0.00,VWS V14.01,2013-06-13 14:42:00,
2013-06-13 06:43:00,55.3,42.9,29.96,NNW,334,1.0,2.0,63,0.00,,---,0.00,VWS V14.01,2013-06-13 14:43:00,
2013-06-13 06:44:00,55.3,42.9,29.96,NW,321,2.0,2.0,63,0.00,,---,0.00,VWS V14.01,2013-06-13 14:44:00,
2013-06-13 06:45:00,55.3,42.9,29.96,NW,318,1.0,2.0,63,0.00,,---,0.00,VWS V14.01,2013-06-13 14:45:00,
2013-06-13 06:47:00,55.3,42.5,29.96,SW,223,0.0,1.0,62,0.00,,---,0.00,VWS V14.01,2013-06-13 14:47:00,
2013-06-13 06:48:00,55.5,43.1,29.96,SE,131,1.0,2.0,63,0.00,,---,0.00,VWS V14.01,2013-06-13 14:48:00,
2013-06-13 06:50:00,55.6,43.2,29.96,SE,131,0.0,2.0,63,0.00,,---,0.00,VWS V14.01,2013-06-13 14:50:00,
2013-06-13 06:52:00,55.9,43.1,29.96,ENE,71,1.0,2.0,62,0.00,,---,0.00,VWS V14.01,2013-06-13 14:52:00,
2013-06-13 06:54:00,56.1,43.3,29.96,ENE,71,1.0,2.0,62,0.00,,---,0.00,VWS V14.01,2013-06-13 14:54:00,
2013-06-13 06:55:00,56.3,43.5,29.96,ENE,68,2.0,2.0,62,0.00,,---,0.00,VWS V14.01,2013-06-13 14:55:00,
2013-06-13 06:57:00,56.7,43.4,29.96,NE,51,2.0,4.0,61,0.00,,---,0.00,VWS V14.01,2013-06-13 14:57:00,
2013-06-13 06:59:00,56.8,43.5,29.96,NW,321,2.0,4.0,61,0.00,,---,0.00,VWS V14.01,2013-06-13 14:59:00,
2013-06-13 07:00:00,57.1,43.8,29.96,NNE,16,3.0,5.0,61,0.00,,---,0.00,VWS V14.01,2013-06-13 15:00:00,
2013-06-13 07:01:00,57.1,43.8,29.96,NNE,25,3.0,5.0,61,0.00,,---,0.00,VWS V14.01,2013-06-13 15:01:00,
2013-06-13 07:02:00,57.3,43.1,29.95,North,355,4.0,4.0,59,0.00,,---,0.00,VWS V14.01,2013-06-13 15:02:00,
2013-06-13 07:04:00,57.5,43.3,29.95,NE,55,3.0,4.0,59,0.00,,---,0.00,VWS V14.01,2013-06-13 15:04:00,
2013-06-13 07:05:00,57.7,43.5,29.95,NNE,33,3.0,6.0,59,0.00,,---,0.00,VWS V14.01,2013-06-13 15:05:00,
2013-06-13 07:06:00,57.7,43.5,29.95,NNE,21,3.0,6.0,59,0.00,,---,0.00,VWS V14.01,2013-06-13 15:06:00,
2013-06-13 07:08:00,57.9,43.7,29.95,NNE,22,4.0,4.0,59,0.00,,---,0.00,VWS V14.01,2013-06-13 15:08:00,
2013-06-13 07:10:00,58.1,43.4,29.95,NE,34,2.0,5.0,58,0.00,,---,0.00,VWS V14.01,2013-06-13 15:10:00,
2013-06-13 07:11:00,58.2,43.5,29.95,NNE,15,6.0,6.0,58,0.00,,---,0.00,VWS V14.01,2013-06-13 15:11:00,
2013-06-13 07:13:00,58.5,43.3,29.95,North,355,3.0,7.0,57,0.00,,---,0.00,VWS V14.01,2013-06-13 15:13:00,
2013-06-13 07:15:00,58.6,43.4,29.95,NNW,338,2.0,7.0,57,0.00,,---,0.00,VWS V14.01,2013-06-13 15:15:00,
2013-06-13 07:16:00,58.7,43.5,29.95,NE,43,3.0,7.0,57,0.00,,---,0.00,VWS V14.01,2013-06-13 15:16:00,
2013-06-13 07:17:00,58.8,43.6,29.95,NE,48,2.0,3.0,57,0.00,,---,0.00,VWS V14.01,2013-06-13 15:17:00,
2013-06-13 07:18:00,58.9,43.7,29.95,NNE,26,2.0,4.0,57,0.00,,---,0.00,VWS V14.01,2013-06-13 15:18:00,
2013-06-13 07:20:00,59.1,43.9,29.95,NE,44,3.0,4.0,57,0.00,,---,0.00,VWS V14.01,2013-06-13 15:20:00,
2013-06-13 07:21:00,59.2,44.0,29.95,NNE,23,3.0,4.0,57,0.00,,---,0.00,VWS V14.01,2013-06-13 15:21:00,
2013-06-13 07:22:00,59.3,44.1,29.95,North,5,3.0,4.0,57,0.00,,---,0.00,VWS V14.01,2013-06-13 15:22:00,
2013-06-13 07:23:00,59.4,44.2,29.95,NNE,32,3.0,4.0,57,0.00,,---,0.00,VWS V14.01,2013-06-13 15:23:00,
2013-06-13 07:25:00,59.6,43.9,29.95,NNE,26,3.0,5.0,56,0.00,,---,0.00,VWS V14.01,2013-06-13 15:25:00,
2013-06-13 07:26:00,59.7,44.0,29.95,North,5,3.0,4.0,56,0.00,,---,0.00,VWS V14.01,2013-06-13 15:26:00,
2013-06-13 07:27:00,59.8,44.1,29.95,North,9,4.0,4.0,56,0.00,,---,0.00,VWS V14.01,2013-06-13 15:27:00,
2013-06-13 07:28:00,60.0,44.3,29.95,North,360,2.0,4.0,56,0.00,,---,0.00,VWS V14.01,2013-06-13 15:28:00,
2013-06-13 07:30:00,59.7,44.0,29.95,NNE,24,3.0,5.0,56,0.00,,---,0.00,VWS V14.01,2013-06-13 15:30:00,
2013-06-13 07:31:00,60.3,44.6,29.95,NNE,28,2.0,4.0,56,0.00,,---,0.00,VWS V14.01,2013-06-13 15:31:00,
2013-06-13 07:32:00,60.4,44.2,29.95,NE,43,5.0,5.0,55,0.00,,---,0.00,VWS V14.01,2013-06-13 15:32:00,
2013-06-13 07:34:00,60.7,44.5,29.95,NNE,28,2.0,5.0,55,0.00,,---,0.00,VWS V14.01,2013-06-13 15:34:00,
2013-06-13 07:35:00,60.3,44.6,29.95,NE,40,3.0,4.0,56,0.00,,---,0.00,VWS V14.01,2013-06-13 15:35:00,
2013-06-13 07:36:00,61.0,44.2,29.95,NE,44,4.0,5.0,54,0.00,,---,0.00,VWS V14.01,2013-06-13 15:36:00,
2013-06-13 07:37:00,61.2,44.0,29.95,NNW,348,5.0,6.0,53,0.00,,---,0.00,VWS V14.01,2013-06-13 15:37:00,
2013-06-13 07:39:00,61.7,43.4,29.95,North,350,2.0,6.0,51,0.00,,---,0.00,VWS V14.01,2013-06-13 15:39:00,
2013-06-13 07:40:00,61.0,44.2,29.95,NE,44,2.0,5.0,54,0.00,,---,0.00,VWS V14.01,2013-06-13 15:40:00,
2013-06-13 07:41:00,62.2,44.4,29.95,NE,43,3.0,6.0,52,0.00,,---,0.00,VWS V14.01,2013-06-13 15:41:00,
2013-06-13 07:42:00,62.3,44.5,29.95,NE,53,2.0,3.0,52,0.00,,---,0.00,VWS V14.01,2013-06-13 15:42:00,
2013-06-13 07:44:00,62.5,44.7,29.95,NE,39,3.0,3.0,52,0.00,,---,0.00,VWS V14.01,2013-06-13 15:44:00,
2013-06-13 07:45:00,62.2,44.4,29.95,NE,55,2.0,6.0,52,0.00,,---,0.00,VWS V14.01,2013-06-13 15:45:00,
2013-06-13 07:46:00,62.5,44.2,29.95,NE,47,1.0,4.0,51,0.00,,---,0.00,VWS V14.01,2013-06-13 15:46:00,
2013-06-13 07:47:00,62.6,44.2,29.95,NE,49,1.0,3.0,51,0.00,,---,0.00,VWS V14.01,2013-06-13 15:47:00,
2013-06-13 07:49:00,62.7,44.3,29.95,NE,40,1.0,3.0,51,0.00,,---,0.00,VWS V14.01,2013-06-13 15:49:00,
2013-06-13 07:50:00,62.6,44.2,29.95,NE,47,1.0,4.0,51,0.00,,---,0.00,VWS V14.01,2013-06-13 15:50:00,
2013-06-13 07:51:00,62.8,44.9,29.95,North,350,2.0,3.0,52,0.00,,---,0.00,VWS V14.01,2013-06-13 15:51:00,
2013-06-13 07:53:00,62.9,44.5,29.95,NE,39,2.0,3.0,51,0.00,,---,0.00,VWS V14.01,2013-06-13 15:53:00,
2013-06-13 07:54:00,63.0,44.6,29.95,NE,50,1.0,3.0,51,0.00,,---,0.00,VWS V14.01,2013-06-13 15:54:00,
2013-06-13 07:55:00,62.8,44.9,29.95,North,350,2.0,3.0,52,0.00,,---,0.00,VWS V14.01,2013-06-13 15:55:00,
2013-06-13 07:56:00,63.2,44.8,29.95,NE,50,1.0,3.0,51,0.00,,---,0.00,VWS V14.01,2013-06-13 15:56:00,
2013-06-13 07:58:00,63.4,45.5,29.95,NE,50,0.0,1.0,52,0.00,,---,0.00,VWS V14.01,2013-06-13 15:58:00,
2013-06-13 07:59:00,63.6,45.2,29.95,NNE,25,1.0,2.0,51,0.00,,---,0.00,VWS V14.01,2013-06-13 15:59:00,
2013-06-13 08:00:00,63.2,44.8,29.95,NE,50,1.0,3.0,51,0.00,,---,0.00,VWS V14.01,2013-06-13 16:00:00,
2013-06-13 08:02:00,63.9,45.4,29.95,North,355,2.0,3.0,51,0.00,,---,0.00,VWS V14.01,2013-06-13 16:02:00,
2013-06-13 08:03:00,64.1,45.6,29.95,North,5,3.0,3.0,51,0.00,,---,0.00,VWS V14.01,2013-06-13 16:03:00,
2013-06-13 08:05:00,64.5,45.5,29.95,West,279,2.0,3.0,50,0.00,,---,0.00,VWS V14.01,2013-06-13 16:05:00,
2013-06-13 08:07:00,64.9,45.3,29.95,NW,310,1.0,2.0,49,0.00,,---,0.00,VWS V14.01,2013-06-13 16:07:00,
2013-06-13 08:08:00,65.0,44.8,29.95,NNW,345,2.0,2.0,48,0.00,,---,0.00,VWS V14.01,2013-06-13 16:08:00,
2013-06-13 08:09:00,65.1,44.9,29.95,North,360,3.0,3.0,48,0.00,,---,0.00,VWS V14.01,2013-06-13 16:09:00,
2013-06-13 08:10:00,65.3,45.1,29.95,NW,308,2.0,4.0,48,0.00,,---,0.00,VWS V14.01,2013-06-13 16:10:00,
2013-06-13 08:12:00,65.7,44.9,29.95,NW,304,2.0,3.0,47,0.00,,---,0.00,VWS V14.01,2013-06-13 16:12:00,
2013-06-13 08:13:00,65.8,45.6,29.95,WNW,296,1.0,3.0,48,0.00,,---,0.00,VWS V14.01,2013-06-13 16:13:00,
2013-06-13 08:14:00,65.8,45.6,29.95,NNW,338,2.0,3.0,48,0.00,,---,0.00,VWS V14.01,2013-06-13 16:14:00,
2013-06-13 08:15:00,65.9,45.1,29.95,North,355,2.0,3.0,47,0.00,,---,0.00,VWS V14.01,2013-06-13 16:15:00,
2013-06-13 08:18:00,66.2,45.4,29.95,NW,306,1.0,3.0,47,0.00,,---,0.00,VWS V14.01,2013-06-13 16:18:00,
2013-06-13 08:19:00,66.4,45.6,29.95,NW,325,2.0,3.0,47,0.00,,---,0.00,VWS V14.01,2013-06-13 16:19:00,
2013-06-13 08:20:00,66.5,45.7,29.95,North,360,2.0,3.0,47,0.00,,---,0.00,VWS V14.01,2013-06-13 16:20:00,
2013-06-13 08:23:00,66.9,45.5,29.95,NW,316,3.0,5.0,46,0.00,,---,0.00,VWS V14.01,2013-06-13 16:23:00,
2013-06-13 08:24:00,67.1,45.7,29.95,NW,316,3.0,5.0,46,0.00,,---,0.00,VWS V14.01,2013-06-13 16:24:00,
2013-06-13 08:25:00,67.2,44.6,29.95,WNW,300,3.0,5.0,44,0.00,,---,0.00,VWS V14.01,2013-06-13 16:25:00,
2013-06-13 08:28:00,67.3,44.7,29.95,NW,325,2.0,4.0,44,0.00,,---,0.00,VWS V14.01,2013-06-13 16:28:00,
2013-06-13 08:29:00,67.4,45.3,29.95,WNW,295,1.0,4.0,45,0.00,,---,0.00,VWS V14.01,2013-06-13 16:29:00,
2013-06-13 08:30:00,67.4,45.3,29.95,NW,305,1.0,4.0,45,0.00,,---,0.00,VWS V14.01,2013-06-13 16:30:00,
2013-06-13 08:33:00,67.7,45.0,29.95,NW,322,4.0,4.0,44,0.00,,---,0.00,VWS V14.01,2013-06-13 16:33:00,
2013-06-13 08:34:00,67.7,45.0,29.95,NW,325,4.0,4.0,44,0.00,,---,0.00,VWS V14.01,2013-06-13 16:34:00,
2013-06-13 08:35:00,67.7,45.0,29.95,NNW,335,4.0,4.0,44,0.00,,---,0.00,VWS V14.01,2013-06-13 16:35:00,
2013-06-13 08:36:00,67.8,44.5,29.95,NNW,336,3.0,5.0,43,0.00,,---,0.00,VWS V14.01,2013-06-13 16:36:00,
2013-06-13 08:39:00,67.7,45.0,29.95,North,349,2.0,6.0,44,0.00,,---,0.00,VWS V14.01,2013-06-13 16:39:00,
2013-06-13 08:40:00,67.7,45.6,29.95,North,351,3.0,6.0,45,0.00,,---,0.00,VWS V14.01,2013-06-13 16:40:00,
2013-06-13 08:41:00,67.8,45.1,29.95,NNW,330,1.0,6.0,44,0.00,,---,0.00,VWS V14.01,2013-06-13 16:41:00,
2013-06-13 08:44:00,68.0,45.3,29.95,NNW,340,4.0,4.0,44,0.00,,---,0.00,VWS V14.01,2013-06-13 16:44:00,
2013-06-13 08:45:00,68.0,45.3,29.95,NW,314,3.0,4.0,44,0.00,,---,0.00,VWS V14.01,2013-06-13 16:45:00,
2013-06-13 08:46:00,68.2,45.5,29.95,NNW,339,4.0,4.0,44,0.00,,---,0.00,VWS V14.01,2013-06-13 16:46:00,
2013-06-13 08:49:00,68.6,44.6,29.95,NW,310,3.0,4.0,42,0.00,,---,0.00,VWS V14.01,2013-06-13 16:49:00,
2013-06-13 08:50:00,68.6,44.0,29.95,NNW,333,1.0,4.0,41,0.00,,---,0.00,VWS V14.01,2013-06-13 16:50:00,
2013-06-13 08:51:00,68.8,44.8,29.95,NNW,327,3.0,4.0,42,0.00,,---,0.00,VWS V14.01,2013-06-13 16:51:00,
2013-06-13 08:54:00,69.3,44.0,29.95,North,360,3.0,3.0,40,0.00,,---,0.00,VWS V14.01,2013-06-13 16:54:00,
2013-06-13 08:55:00,69.4,44.1,29.95,North,355,3.0,3.0,40,0.00,,---,0.00,VWS V14.01,2013-06-13 16:55:00,
2013-06-13 08:56:00,69.6,43.6,29.95,WNW,292,3.0,3.0,39,0.00,,---,0.00,VWS V14.01,2013-06-13 16:56:00,
2013-06-13 08:57:00,69.7,43.7,29.95,NNW,342,3.0,3.0,39,0.00,,---,0.00,VWS V14.01,2013-06-13 16:57:00,
2013-06-13 08:59:00,70.0,43.2,29.95,WNW,292,1.0,4.0,38,0.00,,---,0.00,VWS V14.01,2013-06-13 16:59:00,
2013-06-13 09:00:00,70.1,44.0,29.95,NW,310,2.0,4.0,39,0.00,,---,0.00,VWS V14.01,2013-06-13 17:00:00,
2013-06-13 09:01:00,70.2,43.4,29.95,NNW,346,2.0,4.0,38,0.00,,---,0.00,VWS V14.01,2013-06-13 17:01:00,
2013-06-13 09:02:00,70.3,44.2,29.95,North,360,3.0,3.0,39,0.00,,---,0.00,VWS V14.01,2013-06-13 17:02:00,
2013-06-13 09:04:00,70.5,43.0,29.95,West,273,2.0,4.0,37,0.00,,---,0.00,VWS V14.01,2013-06-13 17:04:00,
2013-06-13 09:05:00,70.3,43.5,29.95,NNW,346,1.0,4.0,38,0.00,,---,0.00,VWS V14.01,2013-06-13 17:05:00,
2013-06-13 09:06:00,70.5,42.3,29.95,SSW,203,2.0,4.0,36,0.00,,---,0.00,VWS V14.01,2013-06-13 17:06:00,
2013-06-13 09:07:00,70.5,42.3,29.95,SSW,198,1.0,2.0,36,0.00,,---,0.00,VWS V14.01,2013-06-13 17:07:00,
2013-06-13 09:10:00,70.6,43.8,29.95,North,349,2.0,2.0,38,0.00,,---,0.00,VWS V14.01,2013-06-13 17:10:00,
2013-06-13 09:11:00,70.8,42.5,29.95,NNW,333,1.0,4.0,36,0.00,,---,0.00,VWS V14.01,2013-06-13 17:11:00,
2013-06-13 09:12:00,70.8,42.5,29.95,NW,323,2.0,3.0,36,0.00,,---,0.00,VWS V14.01,2013-06-13 17:12:00,
2013-06-13 09:15:00,70.9,41.9,29.95,North,355,1.0,5.0,35,0.00,,---,0.00,VWS V14.01,2013-06-13 17:15:00,
2013-06-13 09:16:00,71.0,42.0,29.96,NE,53,0.0,5.0,35,0.00,,---,0.00,VWS V14.01,2013-06-13 17:16:00,
2013-06-13 09:17:00,71.1,42.8,29.95,ENE,71,1.0,2.0,36,0.00,,---,0.00,VWS V14.01,2013-06-13 17:17:00,
2013-06-13 09:20:00,71.4,42.3,29.95,SSW,194,1.0,4.0,35,0.00,,---,0.00,VWS V14.01,2013-06-13 17:20:00,
2013-06-13 09:21:00,71.5,42.4,29.95,WSW,257,2.0,4.0,35,0.00,,---,0.00,VWS V14.01,2013-06-13 17:21:00,
2013-06-13 09:22:00,71.5,42.4,29.95,WSW,257,1.0,2.0,35,0.00,,---,0.00,VWS V14.01,2013-06-13 17:22:00,
2013-06-13 09:23:00,71.5,42.4,29.95,SSW,207,3.0,3.0,35,0.00,,---,0.00,VWS V14.01,2013-06-13 17:23:00,
2013-06-13 09:25:00,71.6,42.5,29.96,SSE,160,2.0,4.0,35,0.00,,---,0.00,VWS V14.01,2013-06-13 17:25:00,
2013-06-13 09:26:00,71.7,41.9,29.96,SSE,160,1.0,4.0,34,0.00,,---,0.00,VWS V14.01,2013-06-13 17:26:00,
2013-06-13 09:27:00,71.7,41.9,29.96,SSE,160,0.0,2.0,34,0.00,,---,0.00,VWS V14.01,2013-06-13 17:27:00,
2013-06-13 09:28:00,71.8,43.4,29.96,SSE,160,0.0,2.0,36,0.00,,---,0.00,VWS V14.01,2013-06-13 17:28:00,
2013-06-13 09:30:00,72.1,43.0,29.96,SSE,160,1.0,2.0,35,0.00,,---,0.00,VWS V14.01,2013-06-13 17:30:00,
2013-06-13 09:31:00,72.2,42.3,29.96,SW,221,3.0,3.0,34,0.00,,---,0.00,VWS V14.01,2013-06-13 17:31:00,
2013-06-13 09:32:00,72.1,42.2,29.96,SW,235,4.0,4.0,34,0.00,,---,0.00,VWS V14.01,2013-06-13 17:32:00,
2013-06-13 09:33:00,72.2,42.3,29.96,WSW,254,2.0,4.0,34,0.00,,---,0.00,VWS V14.01,2013-06-13 17:33:00,
2013-06-13 09:35:00,72.3,42.4,29.96,North,355,3.0,4.0,34,0.00,,---,0.00,VWS V14.01,2013-06-13 17:35:00,
2013-06-13 09:37:00,72.5,42.6,29.96,WSW,257,1.0,2.0,34,0.00,,---,0.00,VWS V14.01,2013-06-13 17:37:00,
2013-06-13 09:38:00,72.5,42.6,29.96,WSW,240,2.0,3.0,34,0.00,,---,0.00,VWS V14.01,2013-06-13 17:38:00,
2013-06-13 09:40:00,72.5,43.3,29.96,SSE,167,2.0,4.0,35,0.00,,---,0.00,VWS V14.01,2013-06-13 17:40:00,
2013-06-13 09:42:00,72.6,42.7,29.96,South,175,2.0,4.0,34,0.00,,---,0.00,VWS V14.01,2013-06-13 17:42:00,
2013-06-13 09:43:00,72.5,41.8,29.96,SSE,160,4.0,7.0,33,0.00,,---,0.00,VWS V14.01,2013-06-13 17:43:00,
2013-06-13 09:45:00,72.3,41.6,29.96,SSE,165,2.0,7.0,33,0.00,,---,0.00,VWS V14.01,2013-06-13 17:45:00,
2013-06-13 09:47:00,72.2,42.3,29.96,East,101,6.0,9.0,34,0.00,,---,0.00,VWS V14.01,2013-06-13 17:47:00,
2013-06-13 09:49:00,72.2,42.3,29.96,ESE,113,5.0,9.0,34,0.00,,---,0.00,VWS V14.01,2013-06-13 17:49:00,
2013-06-13 09:50:00,72.2,42.3,29.96,SE,146,2.0,7.0,34,0.00,,---,0.00,VWS V14.01,2013-06-13 17:50:00,
2013-06-13 09:51:00,72.2,42.3,29.96,South,177,6.0,9.0,34,0.00,,---,0.00,VWS V14.01,2013-06-13 17:51:00,
2013-06-13 09:52:00,72.1,41.4,29.96,SE,132,4.0,9.0,33,0.00,,---,0.00,VWS V14.01,2013-06-13 17:52:00,
2013-06-13 09:53:00,72.1,42.2,29.96,East,98,4.0,9.0,34,0.00,,---,0.00,VWS V14.01,2013-06-13 17:53:00,
2013-06-13 09:54:00,72.2,43.1,29.95,SE,129,0.0,9.0,35,0.00,,---,0.00,VWS V14.01,2013-06-13 17:54:00,
2013-06-13 09:55:00,72.2,42.3,29.96,South,174,8.0,9.0,34,0.00,,---,0.00,VWS V14.01,2013-06-13 17:55:00,
2013-06-13 09:56:00,72.3,42.4,29.95,SSE,163,4.0,9.0,34,0.00,,---,0.00,VWS V14.01,2013-06-13 17:56:00,
2013-06-13 09:57:00,72.4,42.5,29.95,South,176,2.0,4.0,34,0.00,,---,0.00,VWS V14.01,2013-06-13 17:57:00,
2013-06-13 09:58:00,72.4,42.5,29.95,South,182,2.0,4.0,34,0.00,,---,0.00,VWS V14.01,2013-06-13 17:58:00,
2013-06-13 10:00:00,72.4,42.5,29.95,SE,129,1.0,6.0,34,0.00,,---,0.00,VWS V14.01,2013-06-13 18:00:00,
2013-06-13 10:02:00,72.5,41.8,29.95,West,265,6.0,6.0,33,0.00,,---,0.00,VWS V14.01,2013-06-13 18:02:00,
2013-06-13 10:03:00,72.5,41.8,29.96,East,86,3.0,6.0,33,0.00,,---,0.00,VWS V14.01,2013-06-13 18:03:00,
2013-06-13 10:05:00,72.7,42.7,29.96,East,83,1.0,6.0,34,0.00,,---,0.00,VWS V14.01,2013-06-13 18:05:00,
2013-06-13 10:07:00,72.9,41.3,29.95,ENE,69,1.0,1.0,32,0.00,,---,0.00,VWS V14.01,2013-06-13 18:07:00,
2013-06-13 10:08:00,73.0,42.2,29.95,SSE,159,4.0,4.0,33,0.00,,---,0.00,VWS V14.01,2013-06-13 18:08:00,
2013-06-13 10:10:00,73.3,41.7,29.95,East,101,4.0,4.0,32,0.00,,---,0.00,VWS V14.01,2013-06-13 18:10:00,
2013-06-13 10:12:00,73.5,42.7,29.95,ESE,118,6.0,8.0,33,0.00,,---,0.00,VWS V14.01,2013-06-13 18:12:00,
2013-06-13 10:13:00,73.6,42.8,29.95,ENE,57,3.0,8.0,33,0.00,,---,0.00,VWS V14.01,2013-06-13 18:13:00,
2013-06-13 10:15:00,73.7,42.8,29.95,NE,44,7.0,8.0,33,0.00,,---,0.00,VWS V14.01,2013-06-13 18:15:00,
2013-06-13 10:17:00,73.7,42.8,29.95,ENE,78,5.0,6.0,33,0.00,,---,0.00,VWS V14.01,2013-06-13 18:17:00,
2013-06-13 10:18:00,73.7,42.8,29.95,NNE,29,2.0,6.0,33,0.00,,---,0.00,VWS V14.01,2013-06-13 18:18:00,
2013-06-13 10:19:00,73.7,42.8,29.95,NE,51,5.0,6.0,33,0.00,,---,0.00,VWS V14.01,2013-06-13 18:19:00,
2013-06-13 10:20:00,73.8,42.9,29.95,NE,36,4.0,6.0,33,0.00,,---,0.00,VWS V14.01,2013-06-13 18:20:00,
2013-06-13 10:23:00,73.7,42.0,29.95,NE,44,7.0,11.0,32,0.00,,---,0.00,VWS V14.01,2013-06-13 18:23:00,
2013-06-13 10:24:00,73.6,42.8,29.95,NNE,32,5.0,13.0,33,0.00,,---,0.00,VWS V14.01,2013-06-13 18:24:00,
2013-06-13 10:25:00,73.4,41.8,29.95,ENE,78,11.0,13.0,32,0.00,,---,0.00,VWS V14.01,2013-06-13 18:25:00,
2013-06-13 10:28:00,73.1,42.3,29.95,ENE,63,10.0,12.0,33,0.00,,---,0.00,VWS V14.01,2013-06-13 18:28:00,
2013-06-13 10:29:00,73.1,41.5,29.95,NE,44,7.0,12.0,32,0.00,,---,0.00,VWS V14.01,2013-06-13 18:29:00,
2013-06-13 10:30:00,73.2,42.4,29.95,ENE,61,5.0,12.0,33,0.00,,---,0.00,VWS V14.01,2013-06-13 18:30:00,
2013-06-13 10:33:00,73.4,43.3,29.95,ENE,61,4.0,11.0,34,0.00,,---,0.00,VWS V14.01,2013-06-13 18:33:00,
2013-06-13 10:34:00,73.3,43.3,29.95,ENE,57,8.0,11.0,34,0.00,,---,0.00,VWS V14.01,2013-06-13 18:34:00,
2013-06-13 10:35:00,73.2,42.4,29.95,ENE,77,7.0,12.0,33,0.00,,---,0.00,VWS V14.01,2013-06-13 18:35:00,
2013-06-13 10:36:00,73.6,42.8,29.95,ENE,66,6.0,11.0,33,0.00,,---,0.00,VWS V14.01,2013-06-13 18:36:00,
2013-06-13 10:39:00,73.8,41.3,29.95,East,80,6.0,11.0,31,0.00,,---,0.00,VWS V14.01,2013-06-13 18:39:00,
2013-06-13 10:40:00,73.9,42.2,29.95,East,80,5.0,11.0,32,0.00,,---,0.00,VWS V14.01,2013-06-13 18:40:00,
2013-06-13 10:41:00,74.0,41.5,29.95,East,90,7.0,11.0,31,0.00,,---,0.00,VWS V14.01,2013-06-13 18:41:00,
2013-06-13 10:44:00,74.1,41.6,29.96,ENE,67,6.0,11.0,31,0.00,,---,0.00,VWS V14.01,2013-06-13 18:44:00,
2013-06-13 10:45:00,74.1,40.7,29.96,ENE,72,4.0,11.0,30,0.00,,---,0.00,VWS V14.01,2013-06-13 18:45:00,
2013-06-13 10:46:00,74.0,41.5,29.95,NNE,25,4.0,4.0,31,0.00,,---,0.00,VWS V14.01,2013-06-13 18:46:00,
2013-06-13 10:49:00,74.2,41.7,29.95,ESE,120,7.0,14.0,31,0.00,,---,0.00,VWS V14.01,2013-06-13 18:49:00,
2013-06-13 10:50:00,74.2,41.7,29.96,East,90,6.0,14.0,31,0.00,,---,0.00,VWS V14.01,2013-06-13 18:50:00,
2013-06-13 10:51:00,74.2,41.7,29.95,East,81,5.0,6.0,31,0.00,,---,0.00,VWS V14.01,2013-06-13 18:51:00,
2013-06-13 10:54:00,74.2,41.7,29.95,ENE,58,5.0,8.0,31,0.00,,---,0.00,VWS V14.01,2013-06-13 18:54:00,
2013-06-13 10:55:00,74.2,41.7,29.95,ENE,66,6.0,8.0,31,0.00,,---,0.00,VWS V14.01,2013-06-13 18:55:00,
2013-06-13 10:56:00,74.3,41.7,29.95,ENE,71,8.0,10.0,31,0.00,,---,0.00,VWS V14.01,2013-06-13 18:56:00,
2013-06-13 11:00:00,74.3,41.7,29.95,ENE,59,4.0,11.0,31,0.00,,---,0.00,VWS V14.01,2013-06-13 19:00:00,
2013-06-13 11:01:00,74.4,41.8,29.96,ENE,75,6.0,6.0,31,0.00,,---,0.00,VWS V14.01,2013-06-13 19:01:00,
2013-06-13 11:02:00,74.4,41.8,29.96,ENE,58,12.0,12.0,31,0.00,,---,0.00,VWS V14.01,2013-06-13 19:02:00,
2013-06-13 11:05:00,74.4,41.8,29.96,East,87,10.0,12.0,31,0.00,,---,0.00,VWS V14.01,2013-06-13 19:05:00,
2013-06-13 11:07:00,74.3,41.7,29.96,East,81,10.0,10.0,31,0.00,,---,0.00,VWS V14.01,2013-06-13 19:07:00,
2013-06-13 11:10:00,74.2,42.5,29.96,East,87,3.0,11.0,32,0.00,,---,0.00,VWS V14.01,2013-06-13 19:10:00,
2013-06-13 11:12:00,74.4,41.8,29.96,East,84,10.0,10.0,31,0.00,,---,0.00,VWS V14.01,2013-06-13 19:12:00,
2013-06-13 11:15:00,74.5,41.9,29.95,ENE,78,7.0,11.0,31,0.00,,---,0.00,VWS V14.01,2013-06-13 19:15:00,
2013-06-13 11:17:00,74.6,42.0,29.96,ENE,69,7.0,9.0,31,0.00,,---,0.00,VWS V14.01,2013-06-13 19:17:00,
2013-06-13 11:18:00,74.6,42.8,29.96,East,79,10.0,12.0,32,0.00,,---,0.00,VWS V14.01,2013-06-13 19:18:00,
2013-06-13 11:20:00,74.5,41.9,29.96,SE,135,11.0,12.0,31,0.00,,---,0.00,VWS V14.01,2013-06-13 19:20:00,
2013-06-13 11:25:00,74.5,41.9,29.96,East,88,5.0,12.0,31,0.00,,---,0.00,VWS V14.01,2013-06-13 19:25:00,
2013-06-13 11:30:00,74.8,42.2,29.96,East,86,7.0,13.0,31,0.00,,---,0.00,VWS V14.01,2013-06-13 19:30:00,
2013-06-13 11:32:00,75.0,42.3,29.96,ESE,113,11.0,13.0,31,0.00,,---,0.00,VWS V14.01,2013-06-13 19:32:00,
2013-06-13 11:33:00,75.1,42.4,29.95,East,80,6.0,13.0,31,0.00,,---,0.00,VWS V14.01,2013-06-13 19:33:00,
2013-06-13 11:35:00,75.0,42.3,29.96,ESE,102,8.0,12.0,31,0.00,,---,0.00,VWS V14.01,2013-06-13 19:35:00,
2013-06-13 11:40:00,75.3,42.6,29.96,NE,36,6.0,13.0,31,0.00,,---,0.00,VWS V14.01,2013-06-13 19:40:00,
2013-06-13 11:45:00,75.6,42.0,29.96,ESE,105,9.0,13.0,30,0.00,,---,0.00,VWS V14.01,2013-06-13 19:45:00,
2013-06-13 11:50:00,75.8,43.0,29.95,ENE,74,5.0,11.0,31,0.00,,---,0.00,VWS V14.01,2013-06-13 19:50:00,
2013-06-13 11:55:00,75.6,42.9,29.96,SSE,150,4.0,13.0,31,0.00,,---,0.00,VWS V14.01,2013-06-13 19:55:00,
2013-06-13 11:56:00,75.6,42.9,29.96,SE,130,9.0,13.0,31,0.00,,---,0.00,VWS V14.01,2013-06-13 19:56:00,
2013-06-13 12:00:00,75.6,42.9,29.96,ESE,116,9.0,13.0,31,0.00,,---,0.00,VWS V14.01,2013-06-13 20:00:00,
2013-06-13 12:01:00,75.3,41.8,29.96,SE,125,11.0,13.0,30,0.00,,---,0.00,VWS V14.01,2013-06-13 20:01:00,
2013-06-13 12:05:00,75.3,41.8,29.96,ESE,106,8.0,13.0,30,0.00,,---,0.00,VWS V14.01,2013-06-13 20:05:00,
2013-06-13 12:06:00,74.9,42.3,29.96,ESE,106,11.0,14.0,31,0.00,,---,0.00,VWS V14.01,2013-06-13 20:06:00,
2013-06-13 12:10:00,74.8,42.2,29.96,ENE,78,11.0,14.0,31,0.00,,---,0.00,VWS V14.01,2013-06-13 20:10:00,
2013-06-13 12:11:00,74.3,41.7,29.96,ESE,107,11.0,15.0,31,0.00,,---,0.00,VWS V14.01,2013-06-13 20:11:00,
2013-06-13 12:12:00,74.3,41.7,29.96,ESE,115,8.0,13.0,31,0.00,,---,0.00,VWS V14.01,2013-06-13 20:12:00,
2013-06-13 12:15:00,74.3,41.7,29.96,ESE,107,11.0,15.0,31,0.00,,---,0.00,VWS V14.01,2013-06-13 20:15:00,
2013-06-13 12:16:00,74.3,42.6,29.96,East,98,7.0,13.0,32,0.00,,---,0.00,VWS V14.01,2013-06-13 20:16:00,
2013-06-13 12:17:00,74.3,42.6,29.96,ESE,107,13.0,13.0,32,0.00,,---,0.00,VWS V14.01,2013-06-13 20:17:00,
2013-06-13 12:20:00,74.3,42.6,29.96,East,98,7.0,13.0,32,0.00,,---,0.00,VWS V14.01,2013-06-13 20:20:00,
2013-06-13 12:21:00,74.3,42.6,29.96,East,90,9.0,12.0,32,0.00,,---,0.00,VWS V14.01,2013-06-13 20:21:00,
2013-06-13 12:22:00,74.3,42.6,29.96,East,98,11.0,13.0,32,0.00,,---,0.00,VWS V14.01,2013-06-13 20:22:00,
2013-06-13 12:23:00,74.3,43.4,29.97,ESE,123,9.0,13.0,33,0.00,,---,0.00,VWS V14.01,2013-06-13 20:23:00,
2013-06-13 12:25:00,74.4,42.7,29.96,ESE,105,12.0,15.0,32,0.00,,---,0.00,VWS V14.01,2013-06-13 20:25:00,
2013-06-13 12:26:00,74.3,42.6,29.97,East,98,6.0,9.0,32,0.00,,---,0.00,VWS V14.01,2013-06-13 20:26:00,
2013-06-13 12:27:00,74.3,42.6,29.97,SE,137,10.0,10.0,32,0.00,,---,0.00,VWS V14.01,2013-06-13 20:27:00,
2013-06-13 12:28:00,74.3,41.7,29.96,SE,128,13.0,15.0,31,0.00,,---,0.00,VWS V14.01,2013-06-13 20:28:00,
2013-06-13 12:30:00,74.3,42.6,29.96,East,89,7.0,15.0,32,0.00,,---,0.00,VWS V14.01,2013-06-13 20:30:00,
2013-06-13 12:31:00,74.4,41.8,29.96,East,101,9.0,13.0,31,0.00,,---,0.00,VWS V14.01,2013-06-13 20:31:00,
2013-06-13 12:32:00,74.4,41.8,29.96,East,82,6.0,13.0,31,0.00,,---,0.00,VWS V14.01,2013-06-13 20:32:00,
2013-06-13 12:33:00,74.5,41.9,29.96,ESE,111,14.0,14.0,31,0.00,,---,0.00,VWS V14.01,2013-06-13 20:33:00,
2013-06-13 12:35:00,74.4,42.7,29.96,East,96,9.0,15.0,32,0.00,,---,0.00,VWS V14.01,2013-06-13 20:35:00,
2013-06-13 12:36:00,74.2,42.5,29.96,East,99,14.0,14.0,32,0.00,,---,0.00,VWS V14.01,2013-06-13 20:36:00,
2013-06-13 12:37:00,74.2,41.7,29.96,East,85,10.0,14.0,31,0.00,,---,0.00,VWS V14.01,2013-06-13 20:37:00,
2013-06-13 12:38:00,74.2,41.7,29.96,East,99,9.0,14.0,31,0.00,,---,0.00,VWS V14.01,2013-06-13 20:38:00,
2013-06-13 12:40:00,74.2,42.5,29.96,SE,130,8.0,15.0,32,0.00,,---,0.00,VWS V14.01,2013-06-13 20:40:00,
2013-06-13 12:41:00,74.3,41.7,29.96,NE,49,8.0,11.0,31,0.00,,---,0.00,VWS V14.01,2013-06-13 20:41:00,
2013-06-13 12:42:00,74.3,41.7,29.96,East,92,7.0,11.0,31,0.00,,---,0.00,VWS V14.01,2013-06-13 20:42:00,
2013-06-13 12:43:00,74.3,41.7,29.96,ESE,103,9.0,13.0,31,0.00,,---,0.00,VWS V14.01,2013-06-13 20:43:00,
2013-06-13 12:44:00,74.3,40.9,29.96,ESE,107,11.0,16.0,30,0.00,,---,0.00,VWS V14.01,2013-06-13 20:44:00,
2013-06-13 12:45:00,74.3,41.7,29.96,ESE,114,6.0,15.0,31,0.00,,---,0.00,VWS V14.01,2013-06-13 20:45:00,
2013-06-13 12:47:00,74.4,41.8,29.96,ESE,106,13.0,14.0,31,0.00,,---,0.00,VWS V14.01,2013-06-13 20:47:00,
2013-06-13 12:48:00,74.4,41.0,29.96,East,99,11.0,15.0,30,0.00,,---,0.00,VWS V14.01,2013-06-13 20:48:00,
2013-06-13 12:49:00,74.4,41.8,29.96,ENE,75,8.0,15.0,31,0.00,,---,0.00,VWS V14.01,2013-06-13 20:49:00,
2013-06-13 12:50:00,74.4,41.8,29.96,ESE,115,12.0,16.0,31,0.00,,---,0.00,VWS V14.01,2013-06-13 20:50:00,
2013-06-13 12:52:00,74.3,40.0,29.96,ESE,103,7.0,13.0,29,0.00,,---,0.00,VWS V14.01,2013-06-13 20:52:00,
2013-06-13 12:53:00,74.3,40.9,29.96,ESE,117,13.0,14.0,30,0.00,,---,0.00,VWS V14.01,2013-06-13 20:53:00,
2013-06-13 12:54:00,74.4,41.0,29.96,ENE,76,10.0,14.0,30,0.00,,---,0.00,VWS V14.01,2013-06-13 20:54:00,
2013-06-13 12:55:00,74.4,40.1,29.96,ESE,109,8.0,16.0,29,0.00,,---,0.00,VWS V14.01,2013-06-13 20:55:00,
2013-06-13 12:57:00,74.4,40.1,29.97,East,98,13.0,18.0,29,0.00,,---,0.00,VWS V14.01,2013-06-13 20:57:00,
2013-06-13 12:58:00,74.4,41.0,29.96,ESE,102,14.0,18.0,30,0.00,,---,0.00,VWS V14.01,2013-06-13 20:58:00,
2013-06-13 12:59:00,74.4,41.0,29.97,ESE,116,11.0,18.0,30,0.00,,---,0.00,VWS V14.01,2013-06-13 20:59:00,
2013-06-13 13:00:00,74.4,40.1,29.97,ESE,121,14.0,19.0,29,0.00,,---,0.00,VWS V14.01,2013-06-13 21:00:00,
2013-06-13 13:02:00,74.4,41.0,29.96,ESE,109,9.0,15.0,30,0.00,,---,0.00,VWS V14.01,2013-06-13 21:02:00,
2013-06-13 13:03:00,74.4,41.0,29.96,ESE,107,7.0,15.0,30,0.00,,---,0.00,VWS V14.01,2013-06-13 21:03:00,
2013-06-13 13:04:00,74.5,40.2,29.97,SE,128,12.0,15.0,29,0.00,,---,0.00,VWS V14.01,2013-06-13 21:04:00,
2013-06-13 13:05:00,74.5,41.1,29.97,ESE,112,12.0,18.0,30,0.00,,---,0.00,VWS V14.01,2013-06-13 21:05:00,
2013-06-13 13:07:00,73.8,40.5,29.96,ENE,71,10.0,15.0,30,0.00,,---,0.00,VWS V14.01,2013-06-13 21:07:00,
2013-06-13 13:08:00,73.8,41.3,29.97,NNE,31,11.0,15.0,31,0.00,,---,0.00,VWS V14.01,2013-06-13 21:08:00,
2013-06-13 13:09:00,73.8,41.3,29.97,NE,45,6.0,15.0,31,0.00,,---,0.00,VWS V14.01,2013-06-13 21:09:00,
2013-06-13 13:10:00,74.4,40.1,29.96,ESE,105,12.0,18.0,29,0.00,,---,0.00,VWS V14.01,2013-06-13 21:10:00,
2013-06-13 13:12:00,74.0,40.6,29.97,East,94,11.0,18.0,30,0.00,,---,0.00,VWS V14.01,2013-06-13 21:12:00,
2013-06-13 13:13:00,74.0,40.6,29.97,NE,43,3.0,18.0,30,0.00,,---,0.00,VWS V14.01,2013-06-13 21:13:00,
2013-06-13 13:14:00,74.0,40.6,29.97,ENE,74,6.0,18.0,30,0.00,,---,0.00,VWS V14.01,2013-06-13 21:14:00,
2013-06-13 13:15:00,74.0,41.5,29.96,East,87,14.0,18.0,31,0.00,,---,0.00,VWS V14.01,2013-06-13 21:15:00,
2013-06-13 13:17:00,74.2,39.9,29.97,ENE,74,10.0,17.0,29,0.00,,---,0.00,VWS V14.01,2013-06-13 21:17:00,
2013-06-13 13:18:00,74.2,39.9,29.97,East,80,8.0,17.0,29,0.00,,---,0.00,VWS V14.01,2013-06-13 21:18:00,
2013-06-13 13:19:00,74.2,39.9,29.97,ENE,76,14.0,17.0,29,0.00,,---,0.00,VWS V14.01,2013-06-13 21:19:00,
2013-06-13 13:20:00,74.1,39.0,29.97,NNE,27,11.0,17.0,28,0.00,,---,0.00,VWS V14.01,2013-06-13 21:20:00,
2013-06-13 13:23:00,74.0,39.8,29.97,ENE,77,5.0,15.0,29,0.00,,---,0.00,VWS V14.01,2013-06-13 21:23:00,
2013-06-13 13:24:00,74.0,38.9,29.97,ENE,75,8.0,15.0,28,0.00,,---,0.00,VWS V14.01,2013-06-13 21:24:00,
2013-06-13 13:25:00,74.1,39.8,29.97,ENE,74,7.0,15.0,29,0.00,,---,0.00,VWS V14.01,2013-06-13 21:25:00,
2013-06-13 13:28:00,74.1,39.8,29.97,ESE,111,8.0,17.0,29,0.00,,---,0.00,VWS V14.01,2013-06-13 21:28:00,
2013-06-13 13:29:00,74.1,39.0,29.97,East,82,5.0,17.0,28,0.00,,---,0.00,VWS V14.01,2013-06-13 21:29:00,
2013-06-13 13:30:00,74.0,39.8,29.97,NE,48,12.0,17.0,29,0.00,,---,0.00,VWS V14.01,2013-06-13 21:30:00,
2013-06-13 13:33:00,74.0,38.9,29.96,ENE,62,11.0,13.0,28,0.00,,---,0.00,VWS V14.01,2013-06-13 21:33:00,
2013-06-13 13:34:00,74.1,39.8,29.97,East,91,5.0,13.0,29,0.00,,---,0.00,VWS V14.01,2013-06-13 21:34:00,
2013-06-13 13:35:00,74.3,40.0,29.97,ESE,119,5.0,15.0,29,0.00,,---,0.00,VWS V14.01,2013-06-13 21:35:00,
2013-06-13 13:38:00,74.5,39.3,29.96,East,79,10.0,11.0,28,0.00,,---,0.00,VWS V14.01,2013-06-13 21:38:00,
2013-06-13 13:39:00,74.4,39.2,29.97,ENE,76,10.0,15.0,28,0.00,,---,0.00,VWS V14.01,2013-06-13 21:39:00,
2013-06-13 13:40:00,74.3,40.0,29.97,ENE,67,10.0,16.0,29,0.00,,---,0.00,VWS V14.01,2013-06-13 21:40:00,
2013-06-13 13:43:00,74.1,39.0,29.97,East,80,6.0,15.0,28,0.00,,---,0.00,VWS V14.01,2013-06-13 21:43:00,
2013-06-13 13:44:00,74.0,37.9,29.96,NE,51,7.0,15.0,27,0.00,,---,0.00,VWS V14.01,2013-06-13 21:44:00,
2013-06-13 13:45:00,74.2,39.0,29.97,ENE,71,11.0,16.0,28,0.00,,---,0.00,VWS V14.01,2013-06-13 21:45:00,
2013-06-13 13:46:00,74.0,39.8,29.97,East,87,7.0,15.0,29,0.00,,---,0.00,VWS V14.01,2013-06-13 21:46:00,
2013-06-13 13:48:00,74.0,38.9,29.97,ESE,113,6.0,14.0,28,0.00,,---,0.00,VWS V14.01,2013-06-13 21:48:00,
2013-06-13 13:49:00,74.1,39.0,29.97,East,87,6.0,14.0,28,0.00,,---,0.00,VWS V14.01,2013-06-13 21:49:00,
2013-06-13 13:50:00,74.2,39.9,29.97,ENE,57,11.0,14.0,29,0.00,,---,0.00,VWS V14.01,2013-06-13 21:50:00,
2013-06-13 13:51:00,74.2,39.9,29.97,NE,41,5.0,5.0,29,0.00,,---,0.00,VWS V14.01,2013-06-13 21:51:00,
2013-06-13 13:53:00,74.2,39.0,29.97,East,88,5.0,15.0,28,0.00,,---,0.00,VWS V14.01,2013-06-13 21:53:00,
2013-06-13 13:54:00,74.2,39.0,29.97,East,86,4.0,15.0,28,0.00,,---,0.00,VWS V14.01,2013-06-13 21:54:00,
2013-06-13 13:55:00,74.2,39.9,29.97,ENE,78,4.0,14.0,29,0.00,,---,0.00,VWS V14.01,2013-06-13 21:55:00,
2013-06-13 13:56:00,74.2,39.0,29.97,East,98,4.0,15.0,28,0.00,,---,0.00,VWS V14.01,2013-06-13 21:56:00,
2013-06-13 13:58:00,74.3,38.2,29.97,ESE,105,11.0,14.0,27,0.00,,---,0.00,VWS V14.01,2013-06-13 21:58:00,
2013-06-13 13:59:00,74.3,38.2,29.97,East,79,4.0,14.0,27,0.00,,---,0.00,VWS V14.01,2013-06-13 21:59:00,
2013-06-13 14:00:00,74.3,39.1,29.97,ENE,66,7.0,15.0,28,0.00,,---,0.00,VWS V14.01,2013-06-13 22:00:00,
2013-06-13 14:01:00,74.3,39.1,29.97,East,87,10.0,11.0,28,0.00,,---,0.00,VWS V14.01,2013-06-13 22:01:00,
2013-06-13 14:03:00,74.4,38.3,29.97,East,79,12.0,15.0,27,0.00,,---,0.00,VWS V14.01,2013-06-13 22:03:00,
2013-06-13 14:04:00,74.3,38.2,29.97,East,82,10.0,15.0,27,0.00,,---,0.00,VWS V14.01,2013-06-13 22:04:00,
2013-06-13 14:05:00,74.3,39.1,29.97,East,94,7.0,14.0,28,0.00,,---,0.00,VWS V14.01,2013-06-13 22:05:00,
2013-06-13 14:06:00,74.3,38.2,29.97,ESE,121,11.0,14.0,27,0.00,,---,0.00,VWS V14.01,2013-06-13 22:06:00,
2013-06-13 14:07:00,74.3,38.2,29.97,East,80,14.0,15.0,27,0.00,,---,0.00,VWS V14.01,2013-06-13 22:07:00,
2013-06-13 14:09:00,74.1,38.0,29.97,ESE,103,4.0,15.0,27,0.00,,---,0.00,VWS V14.01,2013-06-13 22:09:00,
2013-06-13 14:10:00,74.1,38.0,29.97,ESE,113,9.0,15.0,27,0.00,,---,0.00,VWS V14.01,2013-06-13 22:10:00,
2013-06-13 14:12:00,74.1,38.0,29.97,East,84,7.0,14.0,27,0.00,,---,0.00,VWS V14.01,2013-06-13 22:12:00,
2013-06-13 14:14:00,74.1,39.0,29.97,East,85,6.0,16.0,28,0.00,,---,0.00,VWS V14.01,2013-06-13 22:14:00,
2013-06-13 14:15:00,74.1,38.0,29.97,East,90,12.0,16.0,27,0.00,,---,0.00,VWS V14.01,2013-06-13 22:15:00,
2013-06-13 14:17:00,74.1,38.0,29.97,ESE,107,6.0,12.0,27,0.00,,---,0.00,VWS V14.01,2013-06-13 22:17:00,
2013-06-13 14:19:00,74.1,38.0,29.97,ESE,103,5.0,15.0,27,0.00,,---,0.00,VWS V14.01,2013-06-13 22:19:00,
2013-06-13 14:20:00,74.1,38.0,29.97,ESE,123,6.0,15.0,27,0.00,,---,0.00,VWS V14.01,2013-06-13 22:20:00,
2013-06-13 14:22:00,74.5,39.3,29.98,East,90,8.0,13.0,28,0.00,,---,0.00,VWS V14.01,2013-06-13 22:22:00,
2013-06-13 14:23:00,74.5,38.4,29.98,ESE,103,12.0,13.0,27,0.00,,---,0.00,VWS V14.01,2013-06-13 22:23:00,
2013-06-13 14:25:00,74.5,38.4,29.98,East,81,6.0,18.0,27,0.00,,---,0.00,VWS V14.01,2013-06-13 22:25:00,
2013-06-13 14:27:00,74.3,37.2,29.97,East,99,9.0,13.0,26,0.00,,---,0.00,VWS V14.01,2013-06-13 22:27:00,
2013-06-13 14:28:00,74.3,37.2,29.97,ENE,75,2.0,13.0,26,0.00,,---,0.00,VWS V14.01,2013-06-13 22:28:00,
2013-06-13 14:30:00,74.4,39.2,29.98,ENE,74,3.0,13.0,28,0.00,,---,0.00,VWS V14.01,2013-06-13 22:30:00,
2013-06-13 14:33:00,74.6,38.5,29.97,SE,126,8.0,11.0,27,0.00,,---,0.00,VWS V14.01,2013-06-13 22:33:00,
2013-06-13 14:34:00,74.6,38.5,29.97,ESE,119,6.0,14.0,27,0.00,,---,0.00,VWS V14.01,2013-06-13 22:34:00,
2013-06-13 14:35:00,74.7,39.5,29.97,East,94,8.0,14.0,28,0.00,,---,0.00,VWS V14.01,2013-06-13 22:35:00,
2013-06-13 14:36:00,74.7,38.5,29.97,East,99,13.0,14.0,27,0.00,,---,0.00,VWS V14.01,2013-06-13 22:36:00,
2013-06-13 14:38:00,74.4,37.3,29.98,East,92,8.0,15.0,26,0.00,,---,0.00,VWS V14.01,2013-06-13 22:38:00,
2013-06-13 14:39:00,74.3,37.2,29.98,East,97,7.0,15.0,26,0.00,,---,0.00,VWS V14.01,2013-06-13 22:39:00,
2013-06-13 14:40:00,74.1,38.0,29.97,East,88,11.0,15.0,27,0.00,,---,0.00,VWS V14.01,2013-06-13 22:40:00,
2013-06-13 14:41:00,74.1,39.0,29.97,ENE,70,10.0,15.0,28,0.00,,---,0.00,VWS V14.01,2013-06-13 22:41:00,
2013-06-13 14:43:00,73.9,37.8,29.98,ENE,69,6.0,13.0,27,0.00,,---,0.00,VWS V14.01,2013-06-13 22:43:00,
2013-06-13 14:45:00,73.7,37.7,29.97,ENE,72,8.0,16.0,27,0.00,,---,0.00,VWS V14.01,2013-06-13 22:45:00,
2013-06-13 14:46:00,73.7,38.6,29.97,ESE,119,5.0,16.0,28,0.00,,---,0.00,VWS V14.01,2013-06-13 22:46:00,
2013-06-13 14:48:00,73.9,38.8,29.97,ESE,109,8.0,13.0,28,0.00,,---,0.00,VWS V14.01,2013-06-13 22:48:00,
2013-06-13 14:50:00,74.0,37.9,29.97,East,94,11.0,13.0,27,0.00,,---,0.00,VWS V14.01,2013-06-13 22:50:00,
2013-06-13 14:51:00,74.0,38.9,29.97,ESE,103,11.0,15.0,28,0.00,,---,0.00,VWS V14.01,2013-06-13 22:51:00,
2013-06-13 14:53:00,73.8,38.7,29.97,ENE,66,11.0,14.0,28,0.00,,---,0.00,VWS V14.01,2013-06-13 22:53:00,
2013-06-13 14:55:00,73.7,38.6,29.98,East,101,11.0,14.0,28,0.00,,---,0.00,VWS V14.01,2013-06-13 22:55:00,
2013-06-13 14:56:00,73.7,38.6,29.97,NE,53,11.0,14.0,28,0.00,,---,0.00,VWS V14.01,2013-06-13 22:56:00,
2013-06-13 14:58:00,73.6,38.5,29.98,ENE,74,5.0,11.0,28,0.00,,---,0.00,VWS V14.01,2013-06-13 22:58:00,
2013-06-13 15:00:00,73.7,37.7,29.98,East,88,5.0,11.0,27,0.00,,---,0.00,VWS V14.01,2013-06-13 23:00:00,
2013-06-13 15:01:00,73.8,37.8,29.97,ENE,66,7.0,8.0,27,0.00,,---,0.00,VWS V14.01,2013-06-13 23:01:00,
2013-06-13 15:04:00,74.0,37.9,29.98,NE,46,6.0,14.0,27,0.00,,---,0.00,VWS V14.01,2013-06-13 23:04:00,
2013-06-13 15:05:00,73.9,38.8,29.98,NNE,24,7.0,14.0,28,0.00,,---,0.00,VWS V14.01,2013-06-13 23:05:00,
2013-06-13 15:06:00,73.9,38.8,29.98,ENE,66,12.0,14.0,28,0.00,,---,0.00,VWS V14.01,2013-06-13 23:06:00,
2013-06-13 15:09:00,73.6,38.5,29.98,East,90,9.0,13.0,28,0.00,,---,0.00,VWS V14.01,2013-06-13 23:09:00,
2013-06-13 15:10:00,73.6,38.5,29.98,ENE,58,13.0,13.0,28,0.00,,---,0.00,VWS V14.01,2013-06-13 23:10:00,
2013-06-13 15:11:00,73.6,38.5,29.98,ENE,65,11.0,14.0,28,0.00,,---,0.00,VWS V14.01,2013-06-13 23:11:00,
2013-06-13 15:12:00,73.6,39.4,29.97,East,84,3.0,7.0,29,0.00,,---,0.00,VWS V14.01,2013-06-13 23:12:00,
2013-06-13 15:14:00,73.8,39.6,29.97,ESE,103,6.0,10.0,29,0.00,,---,0.00,VWS V14.01,2013-06-13 23:14:00,
2013-06-13 15:15:00,73.9,39.7,29.97,East,93,6.0,10.0,29,0.00,,---,0.00,VWS V14.01,2013-06-13 23:15:00,
2013-06-13 15:16:00,74.1,39.0,29.97,East,90,8.0,8.0,28,0.00,,---,0.00,VWS V14.01,2013-06-13 23:16:00,
2013-06-13 15:17:00,74.1,39.0,29.97,East,84,6.0,13.0,28,0.00,,---,0.00,VWS V14.01,2013-06-13 23:17:00,
2013-06-13 15:19:00,74.2,39.9,29.98,East,88,10.0,13.0,29,0.00,,---,0.00,VWS V14.01,2013-06-13 23:19:00,
2013-06-13 15:20:00,74.2,39.9,29.98,East,96,12.0,14.0,29,0.00,,---,0.00,VWS V14.01,2013-06-13 23:20:00,
2013-06-13 15:21:00,74.2,39.0,29.97,East,83,3.0,14.0,28,0.00,,---,0.00,VWS V14.01,2013-06-13 23:21:00,
2013-06-13 15:22:00,74.2,39.9,29.98,ESE,106,8.0,8.0,29,0.00,,---,0.00,VWS V14.01,2013-06-13 23:22:00,
2013-06-13 15:23:00,74.3,40.0,29.97,East,81,3.0,11.0,29,0.00,,---,0.00,VWS V14.01,2013-06-13 23:23:00,
2013-06-13 15:25:00,74.3,38.2,29.97,ESE,109,5.0,13.0,27,0.00,,---,0.00,VWS V14.01,2013-06-13 23:25:00,
2013-06-13 15:26:00,74.3,39.1,29.97,NE,38,8.0,13.0,28,0.00,,---,0.00,VWS V14.01,2013-06-13 23:26:00,
2013-06-13 15:27:00,74.3,40.0,29.97,ESE,103,8.0,11.0,29,0.00,,---,0.00,VWS V14.01,2013-06-13 23:27:00,
2013-06-13 15:28:00,74.3,39.1,29.98,NE,53,8.0,11.0,28,0.00,,---,0.00,VWS V14.01,2013-06-13 23:28:00,
2013-06-13 15:30:00,74.2,39.9,29.98,ENE,69,6.0,12.0,29,0.00,,---,0.00,VWS V14.01,2013-06-13 23:30:00,
2013-06-13 15:31:00,74.1,39.8,29.97,ESE,113,7.0,11.0,29,0.00,,---,0.00,VWS V14.01,2013-06-13 23:31:00,
2013-06-13 15:32:00,74.2,39.0,29.97,East,101,2.0,11.0,28,0.00,,---,0.00,VWS V14.01,2013-06-13 23:32:00,
2013-06-13 15:33:00,74.2,39.9,29.97,East,94,7.0,11.0,29,0.00,,---,0.00,VWS V14.01,2013-06-13 23:33:00,
2013-06-13 15:35:00,74.4,40.1,29.98,NE,43,3.0,11.0,29,0.00,,---,0.00,VWS V14.01,2013-06-13 23:35:00,
2013-06-13 15:36:00,74.4,40.1,29.98,East,92,5.0,6.0,29,0.00,,---,0.00,VWS V14.01,2013-06-13 23:36:00,
2013-06-13 15:37:00,74.4,40.1,29.97,East,88,7.0,11.0,29,0.00,,---,0.00,VWS V14.01,2013-06-13 23:37:00,
2013-06-13 15:38:00,74.3,39.1,29.97,East,96,11.0,14.0,28,0.00,,---,0.00,VWS V14.01,2013-06-13 23:38:00,
2013-06-13 15:40:00,74.1,39.8,29.97,East,92,7.0,14.0,29,0.00,,---,0.00,VWS V14.01,2013-06-13 23:40:00,
2013-06-13 15:41:00,74.0,38.9,29.98,East,90,4.0,5.0,28,0.00,,---,0.00,VWS V14.01,2013-06-13 23:41:00,
2013-06-13 15:42:00,74.0,40.6,29.98,NE,49,2.0,5.0,30,0.00,,---,0.00,VWS V14.01,2013-06-13 23:42:00,
2013-06-13 15:43:00,74.1,40.7,29.98,ENE,67,6.0,11.0,30,0.00,,---,0.00,VWS V14.01,2013-06-13 23:43:00,
2013-06-13 15:45:00,74.0,39.8,29.97,East,93,7.0,13.0,29,0.00,,---,0.00,VWS V14.01,2013-06-13 23:45:00,
2013-06-13 15:46:00,73.9,39.7,29.97,East,91,8.0,13.0,29,0.00,,---,0.00,VWS V14.01,2013-06-13 23:46:00,
2013-06-13 15:47:00,73.8,39.6,29.98,ENE,62,10.0,12.0,29,0.00,,---,0.00,VWS V14.01,2013-06-13 23:47:00,
2013-06-13 15:48:00,73.7,38.6,29.97,ENE,78,7.0,12.0,28,0.00,,---,0.00,VWS V14.01,2013-06-13 23:48:00,
2013-06-13 15:50:00,73.9,39.7,29.97,East,90,7.0,13.0,29,0.00,,---,0.00,VWS V14.01,2013-06-13 23:50:00,
2013-06-13 15:51:00,73.5,39.3,29.98,ENE,58,8.0,16.0,29,0.00,,---,0.00,VWS V14.01,2013-06-13 23:51:00,
2013-06-13 15:52:00,73.5,40.2,29.98,East,91,8.0,12.0,30,0.00,,---,0.00,VWS V14.01,2013-06-13 23:52:00,
2013-06-13 15:54:00,73.5,39.3,29.98,ENE,62,4.0,12.0,29,0.00,,---,0.00,VWS V14.01,2013-06-13 23:54:00,
2013-06-13 15:55:00,73.5,39.3,29.98,ENE,76,8.0,16.0,29,0.00,,---,0.00,VWS V14.01,2013-06-13 23:55:00,
2013-06-13 15:56:00,73.6,40.3,29.97,East,86,5.0,12.0,30,0.00,,---,0.00,VWS V14.01,2013-06-13 23:56:00,
2013-06-13 15:57:00,73.7,39.5,29.97,ENE,69,12.0,12.0,29,0.00,,---,0.00,VWS V14.01,2013-06-13 23:57:00,
2013-06-13 15:58:00,73.7,40.4,29.97,ENE,67,8.0,12.0,30,0.00,,---,0.00,VWS V14.01,2013-06-13 23:58:00,
2013-06-13 15:59:00,73.8,40.5,29.97,NE,47,3.0,12.0,30,0.00,,---,0.00,VWS V14.01,2013-06-13 23:59:00,
2013-06-13 16:00:00,73.6,40.3,29.97,ESE,106,4.0,12.0,30,0.00,,---,0.00,VWS V14.01,2013-06-14 00:00:00,
2013-06-13 16:01:00,74.0,40.6,29.97,NE,49,4.0,12.0,30,0.00,,---,0.00,VWS V14.01,2013-06-14 00:01:00,
2013-06-13 16:02:00,74.1,40.7,29.97,East,96,7.0,10.0,30,0.00,,---,0.00,VWS V14.01,2013-06-14 00:02:00,
2013-06-13 16:03:00,74.1,39.8,29.97,ESE,102,5.0,10.0,29,0.00,,---,0.00,VWS V14.01,2013-06-14 00:03:00,
2013-06-13 16:04:00,74.2,39.9,29.97,East,80,7.0,10.0,29,0.00,,---,0.00,VWS V14.01,2013-06-14 00:04:00,
2013-06-13 16:05:00,74.0,40.6,29.97,ENE,76,6.0,12.0,30,0.00,,---,0.00,VWS V14.01,2013-06-14 00:05:00,
2013-06-13 16:06:00,74.1,40.7,29.97,ENE,61,7.0,11.0,30,0.00,,---,0.00,VWS V14.01,2013-06-14 00:06:00,
2013-06-13 16:07:00,74.2,39.9,29.97,East,98,12.0,13.0,29,0.00,,---,0.00,VWS V14.01,2013-06-14 00:07:00,
2013-06-13 16:09:00,74.1,39.0,29.97,East,94,6.0,13.0,28,0.00,,---,0.00,VWS V14.01,2013-06-14 00:09:00,
2013-06-13 16:10:00,74.1,40.7,29.97,ENE,66,3.0,11.0,30,0.00,,---,0.00,VWS V14.01,2013-06-14 00:10:00,
2013-06-13 16:11:00,73.9,39.7,29.97,ENE,74,7.0,13.0,29,0.00,,---,0.00,VWS V14.01,2013-06-14 00:11:00,
2013-06-13 16:13:00,73.7,38.6,29.97,East,91,8.0,11.0,28,0.00,,---,0.00,VWS V14.01,2013-06-14 00:13:00,
2013-06-13 16:14:00,73.7,39.5,29.97,ESE,116,7.0,11.0,29,0.00,,---,0.00,VWS V14.01,2013-06-14 00:14:00,
2013-06-13 16:15:00,73.7,39.5,29.97,East,97,4.0,11.0,29,0.00,,---,0.00,VWS V14.01,2013-06-14 00:15:00,
2013-06-13 16:16:00,74.0,40.6,29.97,NE,36,3.0,7.0,30,0.00,,---,0.00,VWS V14.01,2013-06-14 00:16:00,
2013-06-13 16:18:00,74.1,39.8,29.97,East,84,10.0,12.0,29,0.00,,---,0.00,VWS V14.01,2013-06-14 00:18:00,
2013-06-13 16:19:00,74.1,39.0,29.97,NE,55,8.0,12.0,28,0.00,,---,0.00,VWS V14.01,2013-06-14 00:19:00,
2013-06-13 16:20:00,74.0,38.9,29.97,ESE,108,8.0,12.0,28,0.00,,---,0.00,VWS V14.01,2013-06-14 00:20:00,
2013-06-13 16:21:00,74.0,40.6,29.97,NE,42,12.0,12.0,30,0.00,,---,0.00,VWS V14.01,2013-06-14 00:21:00,
2013-06-13 16:22:00,74.0,40.6,29.97,NE,54,11.0,12.0,30,0.00,,---,0.00,VWS V14.01,2013-06-14 00:22:00,
2013-06-13 16:23:00,73.9,40.5,29.98,ENE,59,11.0,15.0,30,0.00,,---,0.00,VWS V14.01,2013-06-14 00:23:00,
2013-06-13 16:24:00,73.9,39.7,29.98,NE,51,7.0,15.0,29,0.00,,---,0.00,VWS V14.01,2013-06-14 00:24:00,
2013-06-13 16:25:00,73.8,39.6,29.97,East,96,6.0,15.0,29,0.00,,---,0.00,VWS V14.01,2013-06-14 00:25:00,
2013-06-13 16:27:00,73.8,39.6,29.97,East,83,7.0,12.0,29,0.00,,---,0.00,VWS V14.01,2013-06-14 00:27:00,
2013-06-13 16:28:00,73.7,39.5,29.97,East,86,12.0,15.0,29,0.00,,---,0.00,VWS V14.01,2013-06-14 00:28:00,
2013-06-13 16:29:00,73.7,38.6,29.97,East,89,10.0,15.0,28,0.00,,---,0.00,VWS V14.01,2013-06-14 00:29:00,
2013-06-13 16:30:00,73.7,39.5,29.97,ESE,122,4.0,15.0,29,0.00,,---,0.00,VWS V14.01,2013-06-14 00:30:00,
2013-06-13 16:32:00,73.7,39.5,29.97,ENE,62,7.0,10.0,29,0.00,,---,0.00,VWS V14.01,2013-06-14 00:32:00,
2013-06-13 16:34:00,74.0,40.6,29.97,East,85,5.0,10.0,30,0.00,,---,0.00,VWS V14.01,2013-06-14 00:34:00,
2013-06-13 16:35:00,73.7,39.5,29.97,East,90,8.0,15.0,29,0.00,,---,0.00,VWS V14.01,2013-06-14 00:35:00,
2013-06-13 16:36:00,74.3,40.0,29.97,East,92,7.0,14.0,29,0.00,,---,0.00,VWS V14.01,2013-06-14 00:36:00,
2013-06-13 16:37:00,74.4,40.1,29.97,East,98,6.0,11.0,29,0.00,,---,0.00,VWS V14.01,2013-06-14 00:37:00,
2013-06-13 16:38:00,74.4,40.1,29.97,East,89,6.0,11.0,29,0.00,,---,0.00,VWS V14.01,2013-06-14 00:38:00,
2013-06-13 16:39:00,74.4,39.2,29.97,East,94,6.0,12.0,28,0.00,,---,0.00,VWS V14.01,2013-06-14 00:39:00,
2013-06-13 16:40:00,74.3,39.1,29.97,East,79,4.0,14.0,28,0.00,,---,0.00,VWS V14.01,2013-06-14 00:40:00,
2013-06-13 16:41:00,74.4,39.2,29.97,East,80,4.0,12.0,28,0.00,,---,0.00,VWS V14.01,2013-06-14 00:41:00,
2013-06-13 16:42:00,74.3,39.1,29.97,East,86,2.0,8.0,28,0.00,,---,0.00,VWS V14.01,2013-06-14 00:42:00,
2013-06-13 16:43:00,74.3,40.0,29.97,East,85,3.0,8.0,29,0.00,,---,0.00,VWS V14.01,2013-06-14 00:43:00,
2013-06-13 16:45:00,74.4,39.2,29.97,ENE,70,7.0,14.0,28,0.00,,---,0.00,VWS V14.01,2013-06-14 00:45:00,
2013-06-13 16:46:00,74.4,40.1,29.97,ENE,61,6.0,14.0,29,0.00,,---,0.00,VWS V14.01,2013-06-14 00:46:00,
2013-06-13 16:47:00,74.4,39.2,29.97,NE,55,10.0,10.0,28,0.00,,---,0.00,VWS V14.01,2013-06-14 00:47:00,
2013-06-13 16:48:00,74.3,40.0,29.97,ENE,71,4.0,10.0,29,0.00,,---,0.00,VWS V14.01,2013-06-14 00:48:00,
2013-06-13 16:50:00,74.4,39.2,29.97,East,84,8.0,10.0,28,0.00,,---,0.00,VWS V14.01,2013-06-14 00:50:00,
2013-06-13 16:51:00,74.4,39.2,29.97,ESE,103,8.0,12.0,28,0.00,,---,0.00,VWS V14.01,2013-06-14 00:51:00,
2013-06-13 16:53:00,74.4,40.1,29.97,East,94,7.0,10.0,29,0.00,,---,0.00,VWS V14.01,2013-06-14 00:53:00,
2013-06-13 16:55:00,74.5,40.2,29.97,ENE,71,7.0,13.0,29,0.00,,---,0.00,VWS V14.01,2013-06-14 00:55:00,
2013-06-13 16:56:00,74.6,40.3,29.97,ESE,119,9.0,13.0,29,0.00,,---,0.00,VWS V14.01,2013-06-14 00:56:00,
2013-06-13 16:58:00,74.6,40.3,29.97,ESE,113,8.0,16.0,29,0.00,,---,0.00,VWS V14.01,2013-06-14 00:58:00,
2013-06-13 17:00:00,74.6,40.3,29.97,ESE,114,11.0,16.0,29,0.00,,---,0.00,VWS V14.01,2013-06-14 01:00:00,
2013-06-13 17:01:00,74.5,40.2,29.97,ESE,114,9.0,16.0,29,0.00,,---,0.00,VWS V14.01,2013-06-14 01:01:00,
2013-06-13 17:03:00,74.3,40.9,29.97,ESE,113,6.0,13.0,30,0.00,,---,0.00,VWS V14.01,2013-06-14 01:03:00,
2013-06-13 17:04:00,74.3,40.9,29.97,SE,135,6.0,13.0,30,0.00,,---,0.00,VWS V14.01,2013-06-14 01:04:00,
2013-06-13 17:05:00,74.2,39.9,29.97,SE,130,11.0,14.0,29,0.00,,---,0.00,VWS V14.01,2013-06-14 01:05:00,
2013-06-13 17:06:00,74.1,39.8,29.97,ESE,105,8.0,14.0,29,0.00,,---,0.00,VWS V14.01,2013-06-14 01:06:00,
2013-06-13 17:09:00,73.9,41.4,29.97,ENE,62,5.0,12.0,31,0.00,,---,0.00,VWS V14.01,2013-06-14 01:09:00,
2013-06-13 17:10:00,74.0,39.8,29.97,East,94,7.0,12.0,29,0.00,,---,0.00,VWS V14.01,2013-06-14 01:10:00,
2013-06-13 17:11:00,74.0,39.8,29.97,ENE,62,6.0,6.0,29,0.00,,---,0.00,VWS V14.01,2013-06-14 01:11:00,
2013-06-13 17:14:00,74.1,40.7,29.97,ENE,70,4.0,12.0,30,0.00,,---,0.00,VWS V14.01,2013-06-14 01:14:00,
2013-06-13 17:15:00,74.3,40.9,29.97,NE,49,12.0,15.0,30,0.00,,---,0.00,VWS V14.01,2013-06-14 01:15:00,
2013-06-13 17:16:00,74.2,39.0,29.97,ESE,116,7.0,7.0,28,0.00,,---,0.00,VWS V14.01,2013-06-14 01:16:00,
2013-06-13 17:17:00,74.2,39.0,29.97,NE,51,8.0,10.0,28,0.00,,---,0.00,VWS V14.01,2013-06-14 01:17:00,
2013-06-13 17:19:00,74.2,39.9,29.97,ESE,112,5.0,10.0,29,0.00,,---,0.00,VWS V14.01,2013-06-14 01:19:00,
2013-06-13 17:20:00,74.2,39.9,29.97,East,88,8.0,10.0,29,0.00,,---,0.00,VWS V14.01,2013-06-14 01:20:00,
2013-06-13 17:21:00,74.2,39.9,29.97,ESE,103,9.0,11.0,29,0.00,,---,0.00,VWS V14.01,2013-06-14 01:21:00,
2013-06-13 17:22:00,74.2,39.0,29.97,ESE,107,7.0,8.0,28,0.00,,---,0.00,VWS V14.01,2013-06-14 01:22:00,
2013-06-13 17:24:00,74.2,39.9,29.97,ENE,61,5.0,14.0,29,0.00,,---,0.00,VWS V14.01,2013-06-14 01:24:00,
2013-06-13 17:25:00,74.2,39.0,29.97,ENE,77,3.0,14.0,28,0.00,,---,0.00,VWS V14.01,2013-06-14 01:25:00,
2013-06-13 17:26:00,74.2,39.9,29.97,East,88,3.0,14.0,29,0.00,,---,0.00,VWS V14.01,2013-06-14 01:26:00,
2013-06-13 17:27:00,74.2,39.0,29.97,ENE,78,6.0,10.0,28,0.00,,---,0.00,VWS V14.01,2013-06-14 01:27:00,
2013-06-13 17:29:00,74.2,38.1,29.97,East,89,6.0,13.0,27,0.00,,---,0.00,VWS V14.01,2013-06-14 01:29:00,
2013-06-13 17:30:00,74.2,39.0,29.97,ESE,108,11.0,13.0,28,0.00,,---,0.00,VWS V14.01,2013-06-14 01:30:00,
2013-06-13 17:31:00,74.1,38.0,29.97,East,88,6.0,13.0,27,0.00,,---,0.00,VWS V14.01,2013-06-14 01:31:00,
2013-06-13 17:32:00,74.2,38.1,29.97,East,94,11.0,11.0,27,0.00,,---,0.00,VWS V14.01,2013-06-14 01:32:00,
2013-06-13 17:34:00,74.1,39.0,29.97,East,88,5.0,11.0,28,0.00,,---,0.00,VWS V14.01,2013-06-14 01:34:00,
2013-06-13 17:35:00,74.2,38.1,29.97,ENE,74,3.0,12.0,27,0.00,,---,0.00,VWS V14.01,2013-06-14 01:35:00,
2013-06-13 17:36:00,74.2,38.1,29.97,East,84,3.0,12.0,27,0.00,,---,0.00,VWS V14.01,2013-06-14 01:36:00,
2013-06-13 17:37:00,74.3,39.1,29.97,East,82,7.0,13.0,28,0.00,,---,0.00,VWS V14.01,2013-06-14 01:37:00,
2013-06-13 17:39:00,74.4,39.2,29.97,ESE,105,5.0,13.0,28,0.00,,---,0.00,VWS V14.01,2013-06-14 01:39:00,
2013-06-13 17:40:00,74.3,39.1,29.97,East,84,5.0,13.0,28,0.00,,---,0.00,VWS V14.01,2013-06-14 01:40:00,
2013-06-13 17:41:00,74.3,39.1,29.97,ENE,75,5.0,13.0,28,0.00,,---,0.00,VWS V14.01,2013-06-14 01:41:00,
2013-06-13 17:42:00,74.3,39.1,29.97,East,98,11.0,12.0,28,0.00,,---,0.00,VWS V14.01,2013-06-14 01:42:00,
2013-06-13 17:44:00,74.2,39.0,29.97,ESE,111,7.0,12.0,28,0.00,,---,0.00,VWS V14.01,2013-06-14 01:44:00,
2013-06-13 17:45:00,74.3,39.1,29.97,ENE,75,5.0,13.0,28,0.00,,---,0.00,VWS V14.01,2013-06-14 01:45:00,
2013-06-13 17:46:00,74.2,39.0,29.97,ENE,65,8.0,12.0,28,0.00,,---,0.00,VWS V14.01,2013-06-14 01:46:00,
2013-06-13 17:47:00,74.3,40.9,29.97,SE,146,7.0,8.0,30,0.00,,---,0.00,VWS V14.01,2013-06-14 01:47:00,
2013-06-13 17:48:00,74.4,40.1,29.97,East,88,2.0,10.0,29,0.00,,---,0.00,VWS V14.01,2013-06-14 01:48:00,
2013-06-13 17:50:00,74.6,39.4,29.96,East,89,6.0,12.0,28,0.00,,---,0.00,VWS V14.01,2013-06-14 01:50:00,
2013-06-13 17:51:00,74.6,39.4,29.97,ENE,59,8.0,13.0,28,0.00,,---,0.00,VWS V14.01,2013-06-14 01:51:00,
2013-06-13 17:52:00,74.5,38.4,29.97,ESE,107,7.0,11.0,27,0.00,,---,0.00,VWS V14.01,2013-06-14 01:52:00,
2013-06-13 17:53:00,74.3,39.1,29.96,ESE,106,2.0,12.0,28,0.00,,---,0.00,VWS V14.01,2013-06-14 01:53:00,
2013-06-13 17:55:00,74.5,38.4,29.97,East,93,9.0,13.0,27,0.00,,---,0.00,VWS V14.01,2013-06-14 01:55:00,
2013-06-13 17:56:00,74.2,39.0,29.96,ENE,76,7.0,12.0,28,0.00,,---,0.00,VWS V14.01,2013-06-14 01:56:00,
2013-06-13 17:57:00,74.2,38.1,29.96,ENE,62,4.0,8.0,27,0.00,,---,0.00,VWS V14.01,2013-06-14 01:57:00,
2013-06-13 17:58:00,74.3,39.1,29.96,East,88,6.0,10.0,28,0.00,,---,0.00,VWS V14.01,2013-06-14 01:58:00,
2013-06-13 18:00:00,74.2,38.1,29.96,ENE,76,8.0,12.0,27,0.00,,---,0.00,VWS V14.01,2013-06-14 02:00:00,
2013-06-13 18:01:00,74.4,40.1,29.96,SE,132,5.0,13.0,29,0.00,,---,0.00,VWS V14.01,2013-06-14 02:01:00,
2013-06-13 18:02:00,74.4,41.0,29.96,SE,129,8.0,11.0,30,0.00,,---,0.00,VWS V14.01,2013-06-14 02:02:00,
2013-06-13 18:03:00,74.4,41.8,29.96,SE,145,5.0,11.0,31,0.00,,---,0.00,VWS V14.01,2013-06-14 02:03:00,
2013-06-13 18:05:00,74.4,41.0,29.96,East,84,10.0,13.0,30,0.00,,---,0.00,VWS V14.01,2013-06-14 02:05:00,
2013-06-13 18:06:00,74.2,41.7,29.96,East,90,6.0,14.0,31,0.00,,---,0.00,VWS V14.01,2013-06-14 02:06:00,
2013-06-13 18:07:00,74.2,40.8,29.96,ESE,103,6.0,7.0,30,0.00,,---,0.00,VWS V14.01,2013-06-14 02:07:00,
2013-06-13 18:08:00,74.1,40.7,29.96,East,92,7.0,12.0,30,0.00,,---,0.00,VWS V14.01,2013-06-14 02:08:00,
2013-06-13 18:10:00,74.2,41.7,29.96,East,85,4.0,14.0,31,0.00,,---,0.00,VWS V14.01,2013-06-14 02:10:00,
2013-06-13 18:11:00,74.1,40.7,29.96,East,100,8.0,12.0,30,0.00,,---,0.00,VWS V14.01,2013-06-14 02:11:00,
2013-06-13 18:12:00,74.1,41.6,29.96,ESE,103,6.0,8.0,31,0.00,,---,0.00,VWS V14.01,2013-06-14 02:12:00,
2013-06-13 18:13:00,74.0,41.5,29.96,ESE,102,7.0,8.0,31,0.00,,---,0.00,VWS V14.01,2013-06-14 02:13:00,
2013-06-13 18:15:00,74.1,40.7,29.96,East,100,8.0,12.0,30,0.00,,---,0.00,VWS V14.01,2013-06-14 02:15:00,
2013-06-13 18:16:00,74.0,41.5,29.96,ESE,106,8.0,8.0,31,0.00,,---,0.00,VWS V14.01,2013-06-14 02:16:00,
2013-06-13 18:17:00,74.0,41.5,29.96,East,92,9.0,13.0,31,0.00,,---,0.00,VWS V14.01,2013-06-14 02:17:00,
2013-06-13 18:18:00,73.9,41.4,29.96,SE,125,4.0,13.0,31,0.00,,---,0.00,VWS V14.01,2013-06-14 02:18:00,
2013-06-13 18:20:00,74.0,41.5,29.96,East,82,4.0,13.0,31,0.00,,---,0.00,VWS V14.01,2013-06-14 02:20:00,
2013-06-13 18:22:00,73.9,41.4,29.96,ESE,106,5.0,5.0,31,0.00,,---,0.00,VWS V14.01,2013-06-14 02:22:00,
2013-06-13 18:24:00,74.0,41.5,29.96,ESE,104,5.0,6.0,31,0.00,,---,0.00,VWS V14.01,2013-06-14 02:24:00,
2013-06-13 18:25:00,73.9,41.4,29.96,ESE,117,2.0,13.0,31,0.00,,---,0.00,VWS V14.01,2013-06-14 02:25:00,
2013-06-13 18:27:00,74.2,41.7,29.96,East,99,2.0,2.0,31,0.00,,---,0.00,VWS V14.01,2013-06-14 02:27:00,
2013-06-13 18:28:00,74.3,41.7,29.96,ESE,103,2.0,5.0,31,0.00,,---,0.00,VWS V14.01,2013-06-14 02:28:00,
2013-06-13 18:29:00,74.4,41.8,29.96,ESE,102,4.0,5.0,31,0.00,,---,0.00,VWS V14.01,2013-06-14 02:29:00,
2013-06-13 18:30:00,74.2,41.7,29.96,East,99,0.0,7.0,31,0.00,,---,0.00,VWS V14.01,2013-06-14 02:30:00,
2013-06-13 18:32:00,74.5,41.1,29.96,ENE,76,6.0,7.0,30,0.00,,---,0.00,VWS V14.01,2013-06-14 02:32:00,
2013-06-13 18:33:00,74.5,41.1,29.96,ESE,114,6.0,7.0,30,0.00,,---,0.00,VWS V14.01,2013-06-14 02:33:00,
2013-06-13 18:34:00,74.4,41.0,29.96,East,97,5.0,11.0,30,0.00,,---,0.00,VWS V14.01,2013-06-14 02:34:00,
2013-06-13 18:35:00,74.5,41.9,29.96,ESE,103,5.0,11.0,31,0.00,,---,0.00,VWS V14.01,2013-06-14 02:35:00,
2013-06-13 18:37:00,74.2,42.5,29.96,East,80,0.0,4.0,32,0.00,,---,0.00,VWS V14.01,2013-06-14 02:37:00,
2013-06-13 18:38:00,74.2,42.5,29.96,East,98,2.0,7.0,32,0.00,,---,0.00,VWS V14.01,2013-06-14 02:38:00,
2013-06-13 18:39:00,74.2,42.5,29.96,ESE,106,7.0,7.0,32,0.00,,---,0.00,VWS V14.01,2013-06-14 02:39:00,
2013-06-13 18:40:00,74.2,40.8,29.96,East,81,2.0,11.0,30,0.00,,---,0.00,VWS V14.01,2013-06-14 02:40:00,
2013-06-13 18:42:00,74.2,42.5,29.96,SSE,151,2.0,6.0,32,0.00,,---,0.00,VWS V14.01,2013-06-14 02:42:00,
2013-06-13 18:43:00,74.2,41.7,29.96,ESE,112,2.0,7.0,31,0.00,,---,0.00,VWS V14.01,2013-06-14 02:43:00,
2013-06-13 18:44:00,74.2,42.5,29.96,SE,136,8.0,8.0,32,0.00,,---,0.00,VWS V14.01,2013-06-14 02:44:00,
2013-06-13 18:45:00,74.2,41.7,29.96,ESE,105,1.0,8.0,31,0.00,,---,0.00,VWS V14.01,2013-06-14 02:45:00,
2013-06-13 18:47:00,74.4,41.8,29.95,ESE,103,6.0,7.0,31,0.00,,---,0.00,VWS V14.01,2013-06-14 02:47:00,
2013-06-13 18:48:00,74.4,42.7,29.95,SE,128,5.0,7.0,32,0.00,,---,0.00,VWS V14.01,2013-06-14 02:48:00,
2013-06-13 18:49:00,74.4,41.8,29.95,ESE,123,7.0,8.0,31,0.00,,---,0.00,VWS V14.01,2013-06-14 02:49:00,
2013-06-13 18:50:00,74.4,41.8,29.95,SE,130,5.0,10.0,31,0.00,,---,0.00,VWS V14.01,2013-06-14 02:50:00,
2013-06-13 18:52:00,74.4,42.7,29.95,SE,130,5.0,9.0,32,0.00,,---,0.00,VWS V14.01,2013-06-14 02:52:00,
2013-06-13 18:53:00,74.4,43.5,29.95,ESE,107,2.0,9.0,33,0.00,,---,0.00,VWS V14.01,2013-06-14 02:53:00,
2013-06-13 18:54:00,74.4,41.8,29.95,ESE,116,2.0,9.0,31,0.00,,---,0.00,VWS V14.01,2013-06-14 02:54:00,
2013-06-13 18:55:00,74.4,41.8,29.95,ESE,123,2.0,9.0,31,0.00,,---,0.00,VWS V14.01,2013-06-14 02:55:00,
2013-06-13 18:57:00,74.5,41.9,29.95,East,88,4.0,12.0,31,0.00,,---,0.00,VWS V14.01,2013-06-14 02:57:00,
2013-06-13 18:58:00,74.6,42.0,29.95,East,87,0.0,12.0,31,0.00,,---,0.00,VWS V14.01,2013-06-14 02:58:00,
2013-06-13 18:59:00,74.6,42.0,29.95,East,87,0.0,12.0,31,0.00,,---,0.00,VWS V14.01,2013-06-14 02:59:00,
2013-06-13 19:00:00,74.7,42.9,29.95,SE,137,4.0,12.0,32,0.00,,---,0.00,VWS V14.01,2013-06-14 03:00:00,
2013-06-13 19:03:00,74.8,41.3,29.95,NE,45,6.0,9.0,30,0.00,,---,0.00,VWS V14.01,2013-06-14 03:03:00,
2013-06-13 19:04:00,74.9,40.5,29.95,ESE,119,4.0,9.0,29,0.00,,---,0.00,VWS V14.01,2013-06-14 03:04:00,
2013-06-13 19:05:00,74.8,41.3,29.95,East,88,2.0,12.0,30,0.00,,---,0.00,VWS V14.01,2013-06-14 03:05:00,
2013-06-13 19:06:00,74.9,43.1,29.95,SE,141,10.0,12.0,32,0.00,,---,0.00,VWS V14.01,2013-06-14 03:06:00,
2013-06-13 19:08:00,74.9,43.1,29.95,ESE,113,1.0,12.0,32,0.00,,---,0.00,VWS V14.01,2013-06-14 03:08:00,
2013-06-13 19:09:00,74.9,43.1,29.95,ESE,105,2.0,12.0,32,0.00,,---,0.00,VWS V14.01,2013-06-14 03:09:00,
2013-06-13 19:10:00,74.8,43.0,29.95,ESE,114,1.0,12.0,32,0.00,,---,0.00,VWS V14.01,2013-06-14 03:10:00,
2013-06-13 19:11:00,74.7,42.9,29.95,ESE,121,4.0,6.0,32,0.00,,---,0.00,VWS V14.01,2013-06-14 03:11:00,
2013-06-13 19:13:00,74.4,41.8,29.95,ESE,112,7.0,9.0,31,0.00,,---,0.00,VWS V14.01,2013-06-14 03:13:00,
2013-06-13 19:14:00,74.3,42.6,29.95,ESE,115,2.0,9.0,32,0.00,,---,0.00,VWS V14.01,2013-06-14 03:14:00,
2013-06-13 19:15:00,74.2,42.5,29.95,East,86,5.0,9.0,32,0.00,,---,0.00,VWS V14.01,2013-06-14 03:15:00,
2013-06-13 19:17:00,74.2,42.5,29.95,SE,127,5.0,7.0,32,0.00,,---,0.00,VWS V14.01,2013-06-14 03:17:00,
2013-06-13 19:18:00,74.1,43.2,29.95,SE,134,4.0,8.0,33,0.00,,---,0.00,VWS V14.01,2013-06-14 03:18:00,
2013-06-13 19:19:00,74.1,42.4,29.95,ESE,122,4.0,8.0,32,0.00,,---,0.00,VWS V14.01,2013-06-14 03:19:00,
2013-06-13 19:20:00,74.2,43.3,29.95,East,88,2.0,9.0,33,0.00,,---,0.00,VWS V14.01,2013-06-14 03:20:00,
2013-06-13 19:21:00,74.0,42.3,29.95,ESE,121,4.0,9.0,32,0.00,,---,0.00,VWS V14.01,2013-06-14 03:21:00,
2013-06-13 19:22:00,74.0,43.1,29.95,ESE,115,6.0,6.0,33,0.00,,---,0.00,VWS V14.01,2013-06-14 03:22:00,
2013-06-13 19:23:00,73.9,42.2,29.95,ESE,107,1.0,6.0,32,0.00,,---,0.00,VWS V14.01,2013-06-14 03:23:00,
2013-06-13 19:24:00,73.9,43.0,29.95,ESE,107,5.0,7.0,33,0.00,,---,0.00,VWS V14.01,2013-06-14 03:24:00,
2013-06-13 19:25:00,74.0,42.3,29.95,ESE,115,2.0,9.0,32,0.00,,---,0.00,VWS V14.01,2013-06-14 03:25:00,
2013-06-13 19:26:00,73.9,43.8,29.95,ESE,107,6.0,7.0,34,0.00,,---,0.00,VWS V14.01,2013-06-14 03:26:00,
2013-06-13 19:27:00,74.0,43.1,29.95,ESE,105,0.0,4.0,33,0.00,,---,0.00,VWS V14.01,2013-06-14 03:27:00,
2013-06-13 19:28:00,74.1,43.2,29.95,ESE,103,4.0,8.0,33,0.00,,---,0.00,VWS V14.01,2013-06-14 03:28:00,
2013-06-13 19:29:00,74.1,43.2,29.95,ESE,110,5.0,8.0,33,0.00,,---,0.00,VWS V14.01,2013-06-14 03:29:00,
2013-06-13 19:30:00,73.9,43.8,29.95,ESE,105,4.0,7.0,34,0.00,,---,0.00,VWS V14.01,2013-06-14 03:30:00,
2013-06-13 19:31:00,74.2,43.3,29.95,ESE,105,5.0,8.0,33,0.00,,---,0.00,VWS V14.01,2013-06-14 03:31:00,
2013-06-13 19:32:00,74.3,42.6,29.95,East,98,1.0,8.0,32,0.00,,---,0.00,VWS V14.01,2013-06-14 03:32:00,
2013-06-13 19:34:00,74.3,43.4,29.95,SE,132,6.0,8.0,33,0.00,,---,0.00,VWS V14.01,2013-06-14 03:34:00,
2013-06-13 19:35:00,74.3,43.4,29.95,East,86,7.0,8.0,33,0.00,,---,0.00,VWS V14.01,2013-06-14 03:35:00,
2013-06-13 19:36:00,74.3,43.4,29.95,ESE,123,6.0,8.0,33,0.00,,---,0.00,VWS V14.01,2013-06-14 03:36:00,
2013-06-13 19:37:00,74.2,42.5,29.95,ESE,119,4.0,7.0,32,0.00,,---,0.00,VWS V14.01,2013-06-14 03:37:00,
2013-06-13 19:39:00,74.2,42.5,29.95,ESE,121,5.0,7.0,32,0.00,,---,0.00,VWS V14.01,2013-06-14 03:39:00,
2013-06-13 19:40:00,74.2,42.5,29.95,ESE,107,4.0,7.0,32,0.00,,---,0.00,VWS V14.01,2013-06-14 03:40:00,
2013-06-13 19:41:00,74.1,42.4,29.95,East,98,1.0,7.0,32,0.00,,---,0.00,VWS V14.01,2013-06-14 03:41:00,
2013-06-13 19:43:00,74.2,42.5,29.95,SE,137,5.0,8.0,32,0.00,,---,0.00,VWS V14.01,2013-06-14 03:43:00,
2013-06-13 19:44:00,74.2,43.3,29.95,ESE,123,2.0,8.0,33,0.00,,---,0.00,VWS V14.01,2013-06-14 03:44:00,
2013-06-13 19:45:00,74.3,43.4,29.95,SE,141,5.0,8.0,33,0.00,,---,0.00,VWS V14.01,2013-06-14 03:45:00,
2013-06-13 19:46:00,74.4,42.7,29.95,SE,134,8.0,9.0,32,0.00,,---,0.00,VWS V14.01,2013-06-14 03:46:00,
2013-06-13 19:48:00,74.6,42.8,29.95,ESE,109,4.0,8.0,32,0.00,,---,0.00,VWS V14.01,2013-06-14 03:48:00,
2013-06-13 19:49:00,74.6,42.8,29.95,SE,138,5.0,9.0,32,0.00,,---,0.00,VWS V14.01,2013-06-14 03:49:00,
2013-06-13 19:50:00,74.7,42.9,29.95,ESE,117,0.0,9.0,32,0.00,,---,0.00,VWS V14.01,2013-06-14 03:50:00,
2013-06-13 19:51:00,74.7,42.9,29.95,ESE,117,1.0,9.0,32,0.00,,---,0.00,VWS V14.01,2013-06-14 03:51:00,
2013-06-13 19:54:00,74.8,43.0,29.95,SE,143,5.0,8.0,32,0.00,,---,0.00,VWS V14.01,2013-06-14 03:54:00,
2013-06-13 19:55:00,74.9,43.1,29.95,ESE,107,7.0,8.0,32,0.00,,---,0.00,VWS V14.01,2013-06-14 03:55:00,
2013-06-13 19:56:00,74.9,42.3,29.95,ESE,105,2.0,8.0,31,0.00,,---,0.00,VWS V14.01,2013-06-14 03:56:00,
2013-06-13 19:59:00,74.8,42.2,29.95,ESE,105,2.0,5.0,31,0.00,,---,0.00,VWS V14.01,2013-06-14 03:59:00,
2013-06-13 20:00:00,74.9,43.1,29.95,ESE,108,1.0,8.0,32,0.00,,---,0.00,VWS V14.01,2013-06-14 04:00:00,
2013-06-13 20:01:00,74.9,43.1,29.95,ESE,108,2.0,8.0,32,0.00,,---,0.00,VWS V14.01,2013-06-14 04:01:00,
2013-06-13 20:05:00,74.9,43.1,29.95,ESE,110,4.0,8.0,32,0.00,,---,0.00,VWS V14.01,2013-06-14 04:05:00,
2013-06-13 20:06:00,75.1,44.1,29.95,SE,132,1.0,11.0,33,0.00,,---,0.00,VWS V14.01,2013-06-14 04:06:00,
2013-06-13 20:10:00,75.1,44.1,29.95,SE,126,7.0,11.0,33,0.00,,---,0.00,VWS V14.01,2013-06-14 04:10:00,
2013-06-13 20:11:00,75.2,43.3,29.95,SE,134,5.0,7.0,32,0.00,,---,0.00,VWS V14.01,2013-06-14 04:11:00,
2013-06-13 20:15:00,75.2,43.3,29.95,SSE,153,7.0,7.0,32,0.00,,---,0.00,VWS V14.01,2013-06-14 04:15:00,
2013-06-13 20:16:00,75.2,43.3,29.95,ESE,116,6.0,9.0,32,0.00,,---,0.00,VWS V14.01,2013-06-14 04:16:00,
2013-06-13 20:17:00,75.2,43.3,29.95,SSE,153,2.0,5.0,32,0.00,,---,0.00,VWS V14.01,2013-06-14 04:17:00,
2013-06-13 20:20:00,75.2,43.3,29.95,SE,136,5.0,9.0,32,0.00,,---,0.00,VWS V14.01,2013-06-14 04:20:00,
2013-06-13 20:21:00,75.2,43.3,29.95,ESE,111,4.0,11.0,32,0.00,,---,0.00,VWS V14.01,2013-06-14 04:21:00,
2013-06-13 20:22:00,75.2,43.3,29.95,SE,139,7.0,9.0,32,0.00,,---,0.00,VWS V14.01,2013-06-14 04:22:00,
2013-06-13 20:25:00,75.2,43.3,29.95,SE,136,6.0,11.0,32,0.00,,---,0.00,VWS V14.01,2013-06-14 04:25:00,
2013-06-13 20:26:00,75.1,44.8,29.95,ESE,109,8.0,8.0,34,0.00,,---,0.00,VWS V14.01,2013-06-14 04:26:00,
2013-06-13 20:27:00,75.0,44.0,29.95,SE,134,4.0,8.0,33,0.00,,---,0.00,VWS V14.01,2013-06-14 04:27:00,
2013-06-13 20:28:00,74.9,43.9,29.95,SE,126,4.0,8.0,33,0.00,,---,0.00,VWS V14.01,2013-06-14 04:28:00,
2013-06-13 20:30:00,75.1,44.8,29.95,ESE,112,6.0,9.0,34,0.00,,---,0.00,VWS V14.01,2013-06-14 04:30:00,
2013-06-13 20:32:00,74.8,43.8,29.95,ESE,109,4.0,9.0,33,0.00,,---,0.00,VWS V14.01,2013-06-14 04:32:00,
2013-06-13 20:33:00,74.7,43.7,29.95,ESE,109,7.0,9.0,33,0.00,,---,0.00,VWS V14.01,2013-06-14 04:33:00,
2013-06-13 20:35:00,74.8,44.6,29.95,SE,133,6.0,11.0,34,0.00,,---,0.00,VWS V14.01,2013-06-14 04:35:00,
2013-06-13 20:37:00,74.5,43.5,29.95,ESE,107,2.0,9.0,33,0.00,,---,0.00,VWS V14.01,2013-06-14 04:37:00,
2013-06-13 20:39:00,74.4,44.2,29.95,East,95,5.0,9.0,34,0.00,,---,0.00,VWS V14.01,2013-06-14 04:39:00,
2013-06-13 20:40:00,74.5,43.5,29.95,ESE,122,8.0,11.0,33,0.00,,---,0.00,VWS V14.01,2013-06-14 04:40:00,
2013-06-13 20:42:00,74.2,44.1,29.95,ESE,117,4.0,7.0,34,0.00,,---,0.00,VWS V14.01,2013-06-14 04:42:00,
2013-06-13 20:43:00,74.2,43.3,29.95,ESE,113,7.0,11.0,33,0.00,,---,0.00,VWS V14.01,2013-06-14 04:43:00,
2013-06-13 20:44:00,74.1,43.2,29.95,ESE,111,8.0,11.0,33,0.00,,---,0.00,VWS V14.01,2013-06-14 04:44:00,
2013-06-13 20:45:00,74.2,43.3,29.95,ESE,109,5.0,11.0,33,0.00,,---,0.00,VWS V14.01,2013-06-14 04:45:00,
2013-06-13 20:47:00,74.0,44.6,29.95,SE,140,4.0,5.0,35,0.00,,---,0.00,VWS V14.01,2013-06-14 04:47:00,
2013-06-13 20:48:00,74.0,44.6,29.95,SE,140,6.0,6.0,35,0.00,,---,0.00,VWS V14.01,2013-06-14 04:48:00,
2013-06-13 20:49:00,74.0,43.9,29.95,SE,141,4.0,8.0,34,0.00,,---,0.00,VWS V14.01,2013-06-14 04:49:00,
2013-06-13 20:50:00,74.0,43.9,29.95,SE,130,2.0,11.0,34,0.00,,---,0.00,VWS V14.01,2013-06-14 04:50:00,
2013-06-13 20:52:00,74.0,44.6,29.95,ESE,123,1.0,2.0,35,0.00,,---,0.00,VWS V14.01,2013-06-14 04:52:00,
2013-06-13 20:53:00,74.1,43.2,29.95,ESE,112,4.0,6.0,33,0.00,,---,0.00,VWS V14.01,2013-06-14 04:53:00,
2013-06-13 20:55:00,74.0,43.1,29.95,SE,129,5.0,8.0,33,0.00,,---,0.00,VWS V14.01,2013-06-14 04:55:00,
2013-06-13 20:58:00,74.0,43.9,29.95,SE,130,4.0,7.0,34,0.00,,---,0.00,VWS V14.01,2013-06-14 04:58:00,
2013-06-13 21:00:00,73.9,43.0,29.95,SE,140,7.0,7.0,33,0.00,,---,0.00,VWS V14.01,2013-06-14 05:00:00,
2013-06-13 21:03:00,73.8,44.5,29.95,SE,134,4.0,7.0,35,0.00,,---,0.00,VWS V14.01,2013-06-14 05:03:00,
2013-06-13 21:05:00,73.7,43.6,29.95,SE,136,1.0,7.0,34,0.00,,---,0.00,VWS V14.01,2013-06-14 05:05:00,
2013-06-13 21:08:00,73.6,42.8,29.95,SE,126,6.0,7.0,33,0.00,,---,0.00,VWS V14.01,2013-06-14 05:08:00,
2013-06-13 21:09:00,73.6,43.5,29.95,ESE,123,1.0,7.0,34,0.00,,---,0.00,VWS V14.01,2013-06-14 05:09:00,
2013-06-13 21:10:00,73.7,43.6,29.95,SE,137,5.0,7.0,34,0.00,,---,0.00,VWS V14.01,2013-06-14 05:10:00,
2013-06-13 21:11:00,73.5,43.4,29.95,ESE,113,4.0,7.0,34,0.00,,---,0.00,VWS V14.01,2013-06-14 05:11:00,
2013-06-13 21:13:00,73.5,43.4,29.95,ESE,113,0.0,7.0,34,0.00,,---,0.00,VWS V14.01,2013-06-14 05:13:00,
2013-06-13 21:14:00,73.5,44.2,29.95,ESE,115,6.0,7.0,35,0.00,,---,0.00,VWS V14.01,2013-06-14 05:14:00,
2013-06-13 21:15:00,73.5,43.4,29.95,ESE,113,1.0,7.0,34,0.00,,---,0.00,VWS V14.01,2013-06-14 05:15:00,
2013-06-13 21:16:00,73.5,44.2,29.95,SE,128,0.0,7.0,35,0.00,,---,0.00,VWS V14.01,2013-06-14 05:16:00,
2013-06-13 21:18:00,73.4,44.1,29.95,SE,142,4.0,6.0,35,0.00,,---,0.00,VWS V14.01,2013-06-14 05:18:00,
2013-06-13 21:19:00,73.4,44.1,29.95,SSE,155,2.0,7.0,35,0.00,,---,0.00,VWS V14.01,2013-06-14 05:19:00,
2013-06-13 21:20:00,73.5,44.2,29.95,SE,128,2.0,7.0,35,0.00,,---,0.00,VWS V14.01,2013-06-14 05:20:00,
2013-06-13 21:21:00,73.3,44.8,29.96,SE,142,4.0,8.0,36,0.00,,---,0.00,VWS V14.01,2013-06-14 05:21:00,
2013-06-13 21:24:00,73.2,43.9,29.96,ESE,105,7.0,8.0,35,0.00,,---,0.00,VWS V14.01,2013-06-14 05:24:00,
2013-06-13 21:25:00,73.3,44.8,29.96,ESE,113,6.0,8.0,36,0.00,,---,0.00,VWS V14.01,2013-06-14 05:25:00,
2013-06-13 21:27:00,73.0,43.8,29.95,ESE,108,6.0,7.0,35,0.00,,---,0.00,VWS V14.01,2013-06-14 05:27:00,
2013-06-13 21:29:00,72.7,43.5,29.96,ESE,106,5.0,7.0,35,0.00,,---,0.00,VWS V14.01,2013-06-14 05:29:00,
2013-06-13 21:30:00,72.6,44.1,29.96,ESE,108,4.0,7.0,36,0.00,,---,0.00,VWS V14.01,2013-06-14 05:30:00,
2013-06-13 21:32:00,72.5,44.1,29.96,ESE,119,1.0,6.0,36,0.00,,---,0.00,VWS V14.01,2013-06-14 05:32:00,
2013-06-13 21:34:00,72.5,44.1,29.96,ESE,122,5.0,7.0,36,0.00,,---,0.00,VWS V14.01,2013-06-14 05:34:00,
2013-06-13 21:35:00,72.4,44.0,29.96,ESE,104,4.0,7.0,36,0.00,,---,0.00,VWS V14.01,2013-06-14 05:35:00,
2013-06-13 21:37:00,72.4,44.7,29.95,SE,136,5.0,6.0,37,0.00,,---,0.00,VWS V14.01,2013-06-14 05:37:00,
2013-06-13 21:40:00,72.3,43.9,29.96,ESE,123,0.0,6.0,36,0.00,,---,0.00,VWS V14.01,2013-06-14 05:40:00,
2013-06-13 21:42:00,72.3,43.9,29.95,SE,136,1.0,5.0,36,0.00,,---,0.00,VWS V14.01,2013-06-14 05:42:00,
2013-06-13 21:45:00,72.2,44.5,29.96,ESE,121,2.0,6.0,37,0.00,,---,0.00,VWS V14.01,2013-06-14 05:45:00,
2013-06-13 21:47:00,72.1,44.4,29.96,SE,129,6.0,6.0,37,0.00,,---,0.00,VWS V14.01,2013-06-14 05:47:00,
2013-06-13 21:50:00,71.9,44.2,29.96,SE,129,2.0,6.0,37,0.00,,---,0.00,VWS V14.01,2013-06-14 05:50:00,
2013-06-13 21:51:00,71.8,44.2,29.96,SE,129,1.0,6.0,37,0.00,,---,0.00,VWS V14.01,2013-06-14 05:51:00,
2013-06-13 21:52:00,71.7,44.8,29.96,SE,129,0.0,2.0,38,0.00,,---,0.00,VWS V14.01,2013-06-14 05:52:00,
2013-06-13 21:55:00,71.5,44.6,29.96,ESE,114,0.0,5.0,38,0.00,,---,0.00,VWS V14.01,2013-06-14 05:55:00,
2013-06-13 21:56:00,71.5,43.9,29.96,SE,128,2.0,5.0,37,0.00,,---,0.00,VWS V14.01,2013-06-14 05:56:00,
2013-06-13 21:57:00,71.4,43.8,29.96,SE,128,1.0,4.0,37,0.00,,---,0.00,VWS V14.01,2013-06-14 05:57:00,
2013-06-13 22:00:00,71.2,45.0,29.96,ESE,113,2.0,4.0,39,0.00,,---,0.00,VWS V14.01,2013-06-14 06:00:00,
2013-06-13 22:01:00,71.2,45.0,29.96,SE,132,5.0,5.0,39,0.00,,---,0.00,VWS V14.01,2013-06-14 06:01:00,
2013-06-13 22:02:00,71.1,44.9,29.96,SE,130,2.0,4.0,39,0.00,,---,0.00,VWS V14.01,2013-06-14 06:02:00,
2013-06-13 22:03:00,71.0,44.8,29.96,SE,142,6.0,6.0,39,0.00,,---,0.00,VWS V14.01,2013-06-14 06:03:00,
2013-06-13 22:05:00,70.8,44.6,29.96,SE,134,5.0,7.0,39,0.00,,---,0.00,VWS V14.01,2013-06-14 06:05:00,
2013-06-13 22:06:00,70.7,44.5,29.96,ESE,123,5.0,7.0,39,0.00,,---,0.00,VWS V14.01,2013-06-14 06:06:00,
2013-06-13 22:07:00,70.6,44.5,29.96,SSE,147,6.0,7.0,39,0.00,,---,0.00,VWS V14.01,2013-06-14 06:07:00,
2013-06-13 22:08:00,70.6,44.5,29.96,SE,132,0.0,7.0,39,0.00,,---,0.00,VWS V14.01,2013-06-14 06:08:00,
2013-06-13 22:10:00,70.7,44.6,29.96,SE,138,5.0,7.0,39,0.00,,---,0.00,VWS V14.01,2013-06-14 06:10:00,
2013-06-13 22:11:00,70.4,45.0,29.96,ESE,116,1.0,2.0,40,0.00,,---,0.00,VWS V14.01,2013-06-14 06:11:00,
2013-06-13 22:12:00,70.4,45.0,29.96,ESE,116,0.0,2.0,40,0.00,,---,0.00,VWS V14.01,2013-06-14 06:12:00,
2013-06-13 22:13:00,70.3,44.9,29.96,ESE,119,2.0,6.0,40,0.00,,---,0.00,VWS V14.01,2013-06-14 06:13:00,
2013-06-13 22:15:00,70.4,45.0,29.96,ESE,113,2.0,7.0,40,0.00,,---,0.00,VWS V14.01,2013-06-14 06:15:00,
2013-06-13 22:16:00,70.1,44.7,29.96,ESE,117,6.0,6.0,40,0.00,,---,0.00,VWS V14.01,2013-06-14 06:16:00,
2013-06-13 22:17:00,70.1,44.7,29.96,ESE,122,0.0,6.0,40,0.00,,---,0.00,VWS V14.01,2013-06-14 06:17:00,
2013-06-13 22:18:00,70.0,45.2,29.96,SE,142,2.0,6.0,41,0.00,,---,0.00,VWS V14.01,2013-06-14 06:18:00,
2013-06-13 22:20:00,70.1,44.7,29.96,ESE,121,4.0,7.0,40,0.00,,---,0.00,VWS V14.01,2013-06-14 06:20:00,
2013-06-13 22:22:00,69.7,45.6,29.96,SE,143,2.0,4.0,42,0.00,,---,0.00,VWS V14.01,2013-06-14 06:22:00,
2013-06-13 22:23:00,69.6,45.5,29.96,SE,138,1.0,6.0,42,0.00,,---,0.00,VWS V14.01,2013-06-14 06:23:00,
2013-06-13 22:25:00,69.8,45.7,29.96,SE,127,0.0,8.0,42,0.00,,---,0.00,VWS V14.01,2013-06-14 06:25:00,
2013-06-13 22:27:00,68.9,45.5,29.96,SE,145,2.0,5.0,43,0.00,,---,0.00,VWS V14.01,2013-06-14 06:27:00,
2013-06-13 22:28:00,68.8,46.0,29.96,SE,140,4.0,6.0,44,0.00,,---,0.00,VWS V14.01,2013-06-14 06:28:00,
2013-06-13 22:30:00,69.0,45.6,29.96,SE,132,1.0,7.0,43,0.00,,---,0.00,VWS V14.01,2013-06-14 06:30:00,
2013-06-13 22:32:00,68.3,46.2,29.96,SE,134,5.0,5.0,45,0.00,,---,0.00,VWS V14.01,2013-06-14 06:32:00,
2013-06-13 22:33:00,68.2,45.5,29.96,ESE,119,4.0,6.0,44,0.00,,---,0.00,VWS V14.01,2013-06-14 06:33:00,
2013-06-13 22:35:00,68.4,45.7,29.96,SE,127,0.0,7.0,44,0.00,,---,0.00,VWS V14.01,2013-06-14 06:35:00,
2013-06-13 22:37:00,67.6,45.5,29.96,ESE,123,6.0,6.0,45,0.00,,---,0.00,VWS V14.01,2013-06-14 06:37:00,
2013-06-13 22:38:00,67.5,45.4,29.96,SE,128,2.0,6.0,45,0.00,,---,0.00,VWS V14.01,2013-06-14 06:38:00,
2013-06-13 22:40:00,67.8,45.7,29.96,SE,138,5.0,7.0,45,0.00,,---,0.00,VWS V14.01,2013-06-14 06:40:00,
2013-06-13 22:42:00,66.7,45.8,29.96,SE,134,0.0,2.0,47,0.00,,---,0.00,VWS V14.01,2013-06-14 06:42:00,
2013-06-13 22:43:00,66.6,45.8,29.96,SE,134,0.0,2.0,47,0.00,,---,0.00,VWS V14.01,2013-06-14 06:43:00,
2013-06-13 22:44:00,66.6,45.8,29.96,SE,134,0.0,2.0,47,0.00,,---,0.00,VWS V14.01,2013-06-14 06:44:00,
2013-06-13 22:45:00,66.9,45.5,29.96,SE,139,1.0,6.0,46,0.00,,---,0.00,VWS V14.01,2013-06-14 06:45:00,
2013-06-13 22:47:00,66.1,45.3,29.96,SE,126,0.0,5.0,47,0.00,,---,0.00,VWS V14.01,2013-06-14 06:47:00,
2013-06-13 22:48:00,66.0,45.8,29.96,SE,134,2.0,6.0,48,0.00,,---,0.00,VWS V14.01,2013-06-14 06:48:00,
2013-06-13 22:49:00,65.9,45.7,29.96,SE,133,4.0,6.0,48,0.00,,---,0.00,VWS V14.01,2013-06-14 06:49:00,
2013-06-13 22:50:00,65.8,45.6,29.96,SE,137,5.0,7.0,48,0.00,,---,0.00,VWS V14.01,2013-06-14 06:50:00,
2013-06-13 22:53:00,65.5,45.3,29.96,SSE,153,6.0,6.0,48,0.00,,---,0.00,VWS V14.01,2013-06-14 06:53:00,
2013-06-13 22:54:00,65.3,45.1,29.96,SE,137,6.0,6.0,48,0.00,,---,0.00,VWS V14.01,2013-06-14 06:54:00,
2013-06-13 22:55:00,65.3,45.1,29.96,SE,128,1.0,6.0,48,0.00,,---,0.00,VWS V14.01,2013-06-14 06:55:00,
2013-06-13 22:58:00,64.9,45.3,29.96,SE,146,1.0,4.0,49,0.00,,---,0.00,VWS V14.01,2013-06-14 06:58:00,
2013-06-13 22:59:00,64.8,45.7,29.96,SE,134,2.0,4.0,50,0.00,,---,0.00,VWS V14.01,2013-06-14 06:59:00,
2013-06-13 23:00:00,64.6,45.6,29.96,ESE,119,0.0,4.0,50,0.00,,---,0.00,VWS V14.01,2013-06-14 07:00:00,
2013-06-13 23:01:00,64.5,45.5,29.96,ESE,119,1.0,4.0,50,0.00,,---,0.00,VWS V14.01,2013-06-14 07:01:00,
2013-06-13 23:03:00,64.3,45.3,29.96,SE,140,2.0,4.0,50,0.00,,---,0.00,VWS V14.01,2013-06-14 07:03:00,
2013-06-13 23:04:00,64.2,45.7,29.96,SE,128,0.0,5.0,51,0.00,,---,0.00,VWS V14.01,2013-06-14 07:04:00,
2013-06-13 23:05:00,64.1,45.6,29.96,SE,140,0.0,5.0,51,0.00,,---,0.00,VWS V14.01,2013-06-14 07:05:00,
2013-06-13 23:06:00,64.0,45.5,29.96,SE,141,1.0,5.0,51,0.00,,---,0.00,VWS V14.01,2013-06-14 07:06:00,
2013-06-13 23:08:00,63.8,45.9,29.96,SE,141,0.0,4.0,52,0.00,,---,0.00,VWS V14.01,2013-06-14 07:08:00,
2013-06-13 23:09:00,63.7,45.8,29.97,SE,141,0.0,4.0,52,0.00,,---,0.00,VWS V14.01,2013-06-14 07:09:00,
2013-06-13 23:10:00,63.6,45.7,29.97,SE,141,2.0,5.0,52,0.00,,---,0.00,VWS V14.01,2013-06-14 07:10:00,
2013-06-13 23:11:00,63.5,45.6,29.97,SE,141,2.0,5.0,52,0.00,,---,0.00,VWS V14.01,2013-06-14 07:11:00,
2013-06-13 23:13:00,63.3,45.9,29.97,SE,136,0.0,5.0,53,0.00,,---,0.00,VWS V14.01,2013-06-14 07:13:00,
2013-06-13 23:14:00,63.2,45.8,29.97,ESE,121,0.0,6.0,53,0.00,,---,0.00,VWS V14.01,2013-06-14 07:14:00,
2013-06-13 23:15:00,63.5,45.6,29.97,SE,141,1.0,5.0,52,0.00,,---,0.00,VWS V14.01,2013-06-14 07:15:00,
2013-06-13 23:20:00,63.0,45.6,29.97,SE,127,1.0,6.0,53,0.00,,---,0.00,VWS V14.01,2013-06-14 07:20:00,
2013-06-13 23:25:00,62.5,46.1,29.97,SE,135,1.0,4.0,55,0.00,,---,0.00,VWS V14.01,2013-06-14 07:25:00,
2013-06-13 23:30:00,62.0,45.7,29.97,SE,135,1.0,5.0,55,0.00,,---,0.00,VWS V14.01,2013-06-14 07:30:00,
2013-06-13 23:35:00,61.5,45.7,29.97,ESE,112,1.0,5.0,56,0.00,,---,0.00,VWS V14.01,2013-06-14 07:35:00,
2013-06-13 23:40:00,61.1,45.8,29.97,SE,135,0.0,1.0,57,0.00,,---,0.00,VWS V14.01,2013-06-14 07:40:00,
2013-06-13 23:45:00,60.7,45.8,29.97,SE,135,0.0,1.0,58,0.00,,---,0.00,VWS V14.01,2013-06-14 07:45:00,
2013-06-13 23:50:00,60.3,45.9,29.97,SE,135,0.0,0.0,59,0.00,,---,0.00,VWS V14.01,2013-06-14 07:50:00,
2013-06-13 23:55:00,60.0,46.1,29.97,SE,135,0.0,0.0,60,0.00,,---,0.00,VWS V14.01,2013-06-14 07:55:00,